Time,TemperatureF,DewpointF,PressureIn,WindDirection,WindDirectionDegrees,WindSpeedMPH,WindSpeedGustMPH,Humidity,HourlyPrecipIn,Conditions,Clouds,dailyrainin,SoftwareType,DateUTC
2013-04-30 00:00:00,70.7,70.1,29.80,South,172,0.0,2.7,98,0.00,,SKC,0.00,VWS V13.01,2013-04-30 05:00:00,
2013-04-30 00:01:00,70.7,70.1,29.80,SSE,161,0.0,0.0,98,0.00,,SKC,0.00,VWS V13.01,2013-04-30 05:01:00,
2013-04-30 00:02:00,70.7,69.8,29.80,South,182,0.0,0.0,97,0.00,,SKC,0.00,VWS V13.01,2013-04-30 05:02:00,
2013-04-30 00:03:00,70.7,69.8,29.80,South,172,0.0,2.2,97,0.00,,SKC,0.00,VWS V13.01,2013-04-30 05:03:00,
2013-04-30 00:04:00,70.7,69.8,29.77,South,172,0.0,0.0,97,0.00,,SKC,0.00,VWS V13.01,2013-04-30 05:04:00,
2013-04-30 00:05:00,70.7,69.8,29.77,SSE,167,0.0,0.0,97,0.00,,SKC,0.00,VWS V13.01,2013-04-30 05:05:00,
2013-04-30 00:06:00,70.7,69.5,29.77,South,183,4.0,4.0,96,0.00,,SKC,0.00,VWS V13.01,2013-04-30 05:06:00,
2013-04-30 00:07:00,70.7,69.5,29.77,South,173,2.2,4.0,96,0.00,,SKC,0.00,VWS V13.01,2013-04-30 05:07:00,
2013-04-30 00:08:00,70.7,69.5,29.77,ESE,117,0.0,2.2,96,0.00,,SKC,0.00,VWS V13.01,2013-04-30 05:08:00,
2013-04-30 00:09:00,70.7,69.2,29.77,SE,143,0.0,2.7,95,0.00,,SKC,0.00,VWS V13.01,2013-04-30 05:09:00,
2013-04-30 00:10:00,70.7,69.2,29.77,ESE,105,2.2,2.2,95,0.00,,SKC,0.00,VWS V13.01,2013-04-30 05:10:00,
2013-04-30 00:11:00,70.7,69.2,29.77,SE,129,3.1,3.1,95,0.00,,SKC,0.00,VWS V13.01,2013-04-30 05:11:00,
2013-04-30 00:12:00,70.7,69.2,29.77,South,169,0.0,3.6,95,0.00,,SKC,0.00,VWS V13.01,2013-04-30 05:12:00,
2013-04-30 00:13:00,70.7,69.2,29.77,ESE,123,0.0,0.0,95,0.00,,SKC,0.00,VWS V13.01,2013-04-30 05:13:00,
2013-04-30 00:14:00,70.7,69.2,29.77,SE,137,3.6,3.6,95,0.00,,SKC,0.00,VWS V13.01,2013-04-30 05:14:00,
2013-04-30 00:15:00,70.7,68.9,29.77,SE,146,2.2,4.0,94,0.00,,SKC,0.00,VWS V13.01,2013-04-30 05:15:00,
2013-04-30 00:16:00,70.7,69.2,29.77,SSE,158,0.0,3.6,95,0.00,,SKC,0.00,VWS V13.01,2013-04-30 05:16:00,
2013-04-30 00:17:00,70.7,69.5,29.77,SSE,158,0.0,0.0,96,0.00,,SKC,0.00,VWS V13.01,2013-04-30 05:17:00,
2013-04-30 00:18:00,70.7,69.5,29.77,South,182,0.0,0.0,96,0.00,,SKC,0.00,VWS V13.01,2013-04-30 05:18:00,
2013-04-30 00:19:00,70.7,69.2,29.77,South,188,0.0,2.2,95,0.00,,SKC,0.00,VWS V13.01,2013-04-30 05:19:00,
2013-04-30 00:20:00,70.7,69.2,29.77,South,180,2.2,2.2,95,0.00,,SKC,0.00,VWS V13.01,2013-04-30 05:20:00,
2013-04-30 00:21:00,70.7,69.2,29.77,South,184,3.1,3.1,95,0.00,,SKC,0.00,VWS V13.01,2013-04-30 05:21:00,
2013-04-30 00:22:00,70.7,69.2,29.77,South,179,2.7,4.0,95,0.00,,SKC,0.00,VWS V13.01,2013-04-30 05:22:00,
2013-04-30 00:23:00,70.7,69.2,29.77,SSE,165,3.1,3.1,95,0.00,,SKC,0.00,VWS V13.01,2013-04-30 05:23:00,
2013-04-30 00:24:00,70.7,69.2,29.77,SSE,155,0.0,3.1,95,0.00,,SKC,0.00,VWS V13.01,2013-04-30 05:24:00,
2013-04-30 00:25:00,70.7,69.2,29.77,SSE,166,2.2,2.2,95,0.00,,SKC,0.00,VWS V13.01,2013-04-30 05:25:00,
2013-04-30 00:26:00,70.9,69.4,29.77,ESE,110,0.0,2.2,95,0.00,,SKC,0.00,VWS V13.01,2013-04-30 05:26:00,
2013-04-30 00:27:00,70.9,69.4,29.77,SE,141,0.0,0.0,95,0.00,,SKC,0.00,VWS V13.01,2013-04-30 05:27:00,
2013-04-30 00:28:00,70.9,69.7,29.77,South,181,2.7,3.1,96,0.00,,SKC,0.00,VWS V13.01,2013-04-30 05:28:00,
2013-04-30 00:29:00,70.9,69.7,29.77,South,177,0.0,4.9,96,0.00,,SKC,0.00,VWS V13.01,2013-04-30 05:29:00,
2013-04-30 00:30:00,70.9,69.7,29.77,South,177,6.3,6.3,96,0.00,,SKC,0.00,VWS V13.01,2013-04-30 05:30:00,
2013-04-30 00:31:00,71.1,70.2,29.77,SSE,163,3.1,6.3,97,0.00,,SKC,0.00,VWS V13.01,2013-04-30 05:31:00,
2013-04-30 00:32:00,71.1,70.5,29.77,South,172,4.9,4.9,98,0.00,,SKC,0.00,VWS V13.01,2013-04-30 05:32:00,
2013-04-30 00:33:00,71.1,70.8,29.77,SE,143,0.0,4.9,99,0.00,,SKC,0.00,VWS V13.01,2013-04-30 05:33:00,
2013-04-30 00:34:00,71.1,70.5,29.77,SSE,150,3.1,3.6,98,0.00,,SKC,0.00,VWS V13.01,2013-04-30 05:34:00,
2013-04-30 00:35:00,71.1,70.5,29.77,South,172,2.7,5.8,98,0.00,,SKC,0.00,VWS V13.01,2013-04-30 05:35:00,
2013-04-30 00:36:00,71.1,70.5,29.77,South,175,0.0,0.0,98,0.00,,SKC,0.00,VWS V13.01,2013-04-30 05:36:00,
2013-04-30 00:37:00,71.1,70.5,29.77,SSE,160,0.0,4.0,98,0.00,,SKC,0.00,VWS V13.01,2013-04-30 05:37:00,
2013-04-30 00:38:00,71.2,70.3,29.77,SSE,166,4.0,4.9,97,0.00,,SKC,0.00,VWS V13.01,2013-04-30 05:38:00,
2013-04-30 00:39:00,71.2,70.3,29.77,SSE,166,0.0,4.0,97,0.00,,SKC,0.00,VWS V13.01,2013-04-30 05:39:00,
2013-04-30 00:40:00,71.2,70.3,29.77,South,173,2.7,2.7,97,0.00,,SKC,0.00,VWS V13.01,2013-04-30 05:40:00,
2013-04-30 00:41:00,71.1,69.9,29.77,South,172,0.0,2.7,96,0.00,,SKC,0.00,VWS V13.01,2013-04-30 05:41:00,
2013-04-30 00:42:00,71.1,69.9,29.77,South,172,0.0,0.0,96,0.00,,SKC,0.00,VWS V13.01,2013-04-30 05:42:00,
2013-04-30 00:43:00,71.1,69.6,29.77,South,171,3.1,3.6,95,0.00,,SKC,0.00,VWS V13.01,2013-04-30 05:43:00,
2013-04-30 00:44:00,71.1,69.6,29.77,South,179,4.0,4.0,95,0.00,,SKC,0.00,VWS V13.01,2013-04-30 05:44:00,
2013-04-30 00:45:00,71.1,69.6,29.77,SSE,166,3.1,4.0,95,0.00,,SKC,0.00,VWS V13.01,2013-04-30 05:45:00,
2013-04-30 00:46:00,71.1,69.6,29.77,South,172,2.7,3.6,95,0.00,,SKC,0.00,VWS V13.01,2013-04-30 05:46:00,
2013-04-30 00:47:00,71.1,69.2,29.77,South,172,0.0,3.6,94,0.00,,SKC,0.00,VWS V13.01,2013-04-30 05:47:00,
2013-04-30 00:48:00,71.1,69.2,29.77,South,172,2.7,2.7,94,0.00,,SKC,0.00,VWS V13.01,2013-04-30 05:48:00,
2013-04-30 00:49:00,71.1,69.2,29.80,South,172,0.0,2.7,94,0.00,,SKC,0.00,VWS V13.01,2013-04-30 05:49:00,
2013-04-30 00:50:00,71.1,69.2,29.80,SSE,159,0.0,2.7,94,0.00,,SKC,0.00,VWS V13.01,2013-04-30 05:50:00,
2013-04-30 00:51:00,70.9,69.1,29.80,SSE,159,0.0,0.0,94,0.00,,SKC,0.00,VWS V13.01,2013-04-30 05:51:00,
2013-04-30 00:52:00,70.9,69.1,29.80,South,183,5.4,5.4,94,0.00,,SKC,0.00,VWS V13.01,2013-04-30 05:52:00,
2013-04-30 00:53:00,70.9,69.1,29.80,South,172,3.6,5.4,94,0.00,,SKC,0.00,VWS V13.01,2013-04-30 05:53:00,
2013-04-30 00:54:00,70.9,68.8,29.80,South,170,3.6,5.4,93,0.00,,SKC,0.00,VWS V13.01,2013-04-30 05:54:00,
2013-04-30 00:55:00,70.9,69.1,29.80,South,176,3.1,3.6,94,0.00,,SKC,0.00,VWS V13.01,2013-04-30 05:55:00,
2013-04-30 00:56:00,70.9,69.1,29.80,South,177,2.2,3.6,94,0.00,,SKC,0.00,VWS V13.01,2013-04-30 05:56:00,
2013-04-30 00:57:00,70.9,69.1,29.80,South,178,2.7,2.7,94,0.00,,SKC,0.00,VWS V13.01,2013-04-30 05:57:00,
2013-04-30 00:58:00,70.7,68.9,29.80,South,178,0.0,2.7,94,0.00,,SKC,0.00,VWS V13.01,2013-04-30 05:58:00,
2013-04-30 00:59:00,70.7,68.9,29.80,South,178,0.0,0.0,94,0.00,,SKC,0.00,VWS V13.01,2013-04-30 05:59:00,
2013-04-30 01:00:00,70.7,68.9,29.80,South,178,0.0,0.0,94,0.00,,SKC,0.00,VWS V13.01,2013-04-30 06:00:00,
2013-04-30 01:01:00,70.7,68.9,29.80,South,178,0.0,0.0,94,0.00,,SKC,0.00,VWS V13.01,2013-04-30 06:01:00,
2013-04-30 01:02:00,70.7,68.9,29.80,South,178,0.0,0.0,94,0.00,,SKC,0.00,VWS V13.01,2013-04-30 06:02:00,
2013-04-30 01:03:00,70.7,68.9,29.80,South,178,0.0,0.0,94,0.00,,SKC,0.00,VWS V13.01,2013-04-30 06:03:00,
2013-04-30 01:04:00,70.7,68.9,29.77,South,178,2.7,2.7,94,0.00,,SKC,0.00,VWS V13.01,2013-04-30 06:04:00,
2013-04-30 01:05:00,70.7,68.9,29.77,South,178,0.0,2.7,94,0.00,,SKC,0.00,VWS V13.01,2013-04-30 06:05:00,
2013-04-30 01:06:00,70.7,68.9,29.77,South,178,0.0,0.0,94,0.00,,SKC,0.00,VWS V13.01,2013-04-30 06:06:00,
2013-04-30 01:07:00,70.7,68.9,29.77,South,178,0.0,0.0,94,0.00,,SKC,0.00,VWS V13.01,2013-04-30 06:07:00,
2013-04-30 01:08:00,70.5,68.7,29.77,South,178,0.0,0.0,94,0.00,,SKC,0.00,VWS V13.01,2013-04-30 06:08:00,
2013-04-30 01:09:00,70.5,68.4,29.77,South,178,0.0,0.0,93,0.00,,SKC,0.00,VWS V13.01,2013-04-30 06:09:00,
2013-04-30 01:10:00,70.5,68.4,29.77,South,178,0.0,0.0,93,0.00,,SKC,0.00,VWS V13.01,2013-04-30 06:10:00,
2013-04-30 01:11:00,70.5,68.4,29.77,South,178,0.0,0.0,93,0.00,,SKC,0.00,VWS V13.01,2013-04-30 06:11:00,
2013-04-30 01:12:00,70.5,68.4,29.77,South,178,0.0,0.0,93,0.00,,SKC,0.00,VWS V13.01,2013-04-30 06:12:00,
2013-04-30 01:13:00,70.3,68.2,29.77,South,178,0.0,0.0,93,0.00,,SKC,0.00,VWS V13.01,2013-04-30 06:13:00,
2013-04-30 01:14:00,70.3,68.2,29.77,South,178,0.0,0.0,93,0.00,,SKC,0.00,VWS V13.01,2013-04-30 06:14:00,
2013-04-30 01:15:00,70.3,68.2,29.77,South,178,0.0,0.0,93,0.00,,SKC,0.00,VWS V13.01,2013-04-30 06:15:00,
2013-04-30 01:16:00,70.3,68.2,29.77,South,178,0.0,0.0,93,0.00,,SKC,0.00,VWS V13.01,2013-04-30 06:16:00,
2013-04-30 01:17:00,70.2,67.7,29.77,South,178,0.0,0.0,92,0.00,,SKC,0.00,VWS V13.01,2013-04-30 06:17:00,
2013-04-30 01:18:00,70.2,67.7,29.77,South,178,0.0,0.0,92,0.00,,SKC,0.00,VWS V13.01,2013-04-30 06:18:00,
2013-04-30 01:19:00,70.2,67.7,29.77,South,178,0.0,0.0,92,0.00,,SKC,0.00,VWS V13.01,2013-04-30 06:19:00,
2013-04-30 01:20:00,70.0,67.6,29.77,South,178,0.0,0.0,92,0.00,,SKC,0.00,VWS V13.01,2013-04-30 06:20:00,
2013-04-30 01:21:00,70.0,67.6,29.77,South,178,0.0,0.0,92,0.00,,SKC,0.00,VWS V13.01,2013-04-30 06:21:00,
2013-04-30 01:22:00,70.0,67.2,29.77,South,178,0.0,0.0,91,0.00,,SKC,0.00,VWS V13.01,2013-04-30 06:22:00,
2013-04-30 01:23:00,69.8,67.1,29.77,South,178,0.0,0.0,91,0.00,,SKC,0.00,VWS V13.01,2013-04-30 06:23:00,
2013-04-30 01:24:00,69.8,67.4,29.77,South,178,0.0,0.0,92,0.00,,SKC,0.00,VWS V13.01,2013-04-30 06:24:00,
2013-04-30 01:25:00,69.8,67.4,29.77,South,178,0.0,0.0,92,0.00,,SKC,0.00,VWS V13.01,2013-04-30 06:25:00,
2013-04-30 01:26:00,69.6,67.5,29.77,South,178,0.0,0.0,93,0.00,,SKC,0.00,VWS V13.01,2013-04-30 06:26:00,
2013-04-30 01:27:00,69.6,67.5,29.77,South,178,0.0,0.0,93,0.00,,SKC,0.00,VWS V13.01,2013-04-30 06:27:00,
2013-04-30 01:28:00,69.6,67.5,29.77,South,178,0.0,0.0,93,0.00,,SKC,0.00,VWS V13.01,2013-04-30 06:28:00,
2013-04-30 01:29:00,69.4,67.3,29.77,South,178,0.0,0.0,93,0.00,,SKC,0.00,VWS V13.01,2013-04-30 06:29:00,
2013-04-30 01:30:00,69.4,67.3,29.77,South,178,0.0,0.0,93,0.00,,SKC,0.00,VWS V13.01,2013-04-30 06:30:00,
2013-04-30 01:31:00,69.4,67.3,29.77,South,178,0.0,0.0,93,0.00,,SKC,0.00,VWS V13.01,2013-04-30 06:31:00,
2013-04-30 01:32:00,69.4,67.3,29.77,South,178,0.0,0.0,93,0.00,,SKC,0.00,VWS V13.01,2013-04-30 06:32:00,
2013-04-30 01:33:00,69.3,67.2,29.77,South,178,0.0,0.0,93,0.00,,SKC,0.00,VWS V13.01,2013-04-30 06:33:00,
2013-04-30 01:34:00,69.3,67.2,29.77,South,178,0.0,0.0,93,0.00,,SKC,0.00,VWS V13.01,2013-04-30 06:34:00,
2013-04-30 01:35:00,69.3,67.2,29.77,South,178,0.0,0.0,93,0.00,,SKC,0.00,VWS V13.01,2013-04-30 06:35:00,
2013-04-30 01:36:00,69.1,67.0,29.77,South,178,0.0,0.0,93,0.00,,SKC,0.00,VWS V13.01,2013-04-30 06:36:00,
2013-04-30 01:37:00,69.1,66.7,29.77,South,178,0.0,0.0,92,0.00,,SKC,0.00,VWS V13.01,2013-04-30 06:37:00,
2013-04-30 01:38:00,68.9,66.5,29.77,South,178,0.0,0.0,92,0.00,,SKC,0.00,VWS V13.01,2013-04-30 06:38:00,
2013-04-30 01:39:00,68.9,66.5,29.77,South,178,0.0,0.0,92,0.00,,SKC,0.00,VWS V13.01,2013-04-30 06:39:00,
2013-04-30 01:40:00,68.9,66.5,29.77,South,178,0.0,0.0,92,0.00,,SKC,0.00,VWS V13.01,2013-04-30 06:40:00,
2013-04-30 01:41:00,68.7,66.3,29.77,South,178,0.0,0.0,92,0.00,,SKC,0.00,VWS V13.01,2013-04-30 06:41:00,
2013-04-30 01:42:00,68.7,66.6,29.77,South,178,0.0,0.0,93,0.00,,SKC,0.00,VWS V13.01,2013-04-30 06:42:00,
2013-04-30 01:43:00,68.7,66.6,29.77,South,178,0.0,0.0,93,0.00,,SKC,0.00,VWS V13.01,2013-04-30 06:43:00,
2013-04-30 01:44:00,68.5,66.4,29.77,South,178,0.0,0.0,93,0.00,,SKC,0.00,VWS V13.01,2013-04-30 06:44:00,
2013-04-30 01:45:00,68.5,66.8,29.77,South,178,0.0,0.0,94,0.00,,SKC,0.00,VWS V13.01,2013-04-30 06:45:00,
2013-04-30 01:46:00,68.5,66.8,29.77,South,178,0.0,0.0,94,0.00,,SKC,0.00,VWS V13.01,2013-04-30 06:46:00,
2013-04-30 01:47:00,68.5,66.8,29.77,South,178,0.0,0.0,94,0.00,,SKC,0.00,VWS V13.01,2013-04-30 06:47:00,
2013-04-30 01:48:00,68.5,66.8,29.77,South,178,0.0,0.0,94,0.00,,SKC,0.00,VWS V13.01,2013-04-30 06:48:00,
2013-04-30 01:49:00,68.5,66.8,29.77,South,178,0.0,0.0,94,0.00,,SKC,0.00,VWS V13.01,2013-04-30 06:49:00,
2013-04-30 01:50:00,68.5,66.8,29.77,South,178,0.0,0.0,94,0.00,,SKC,0.00,VWS V13.01,2013-04-30 06:50:00,
2013-04-30 01:51:00,68.5,66.8,29.77,South,178,0.0,0.0,94,0.00,,SKC,0.00,VWS V13.01,2013-04-30 06:51:00,
2013-04-30 01:52:00,68.5,66.8,29.77,South,178,0.0,0.0,94,0.00,,SKC,0.00,VWS V13.01,2013-04-30 06:52:00,
2013-04-30 01:53:00,68.5,67.1,29.77,South,178,0.0,0.0,95,0.00,,SKC,0.00,VWS V13.01,2013-04-30 06:53:00,
2013-04-30 01:54:00,68.4,66.9,29.77,South,178,0.0,0.0,95,0.00,,SKC,0.00,VWS V13.01,2013-04-30 06:54:00,
2013-04-30 01:55:00,68.4,66.6,29.77,South,178,0.0,0.0,94,0.00,,SKC,0.00,VWS V13.01,2013-04-30 06:55:00,
2013-04-30 01:56:00,68.4,66.6,29.77,South,178,0.0,0.0,94,0.00,,SKC,0.00,VWS V13.01,2013-04-30 06:56:00,
2013-04-30 01:57:00,68.4,66.3,29.77,South,178,0.0,0.0,93,0.00,,SKC,0.00,VWS V13.01,2013-04-30 06:57:00,
2013-04-30 01:58:00,68.2,66.1,29.77,South,178,0.0,0.0,93,0.00,,SKC,0.00,VWS V13.01,2013-04-30 06:58:00,
2013-04-30 01:59:00,68.2,66.1,29.77,South,178,0.0,0.0,93,0.00,,SKC,0.00,VWS V13.01,2013-04-30 06:59:00,
2013-04-30 02:00:00,68.2,66.4,29.77,South,178,0.0,0.0,94,0.00,,SKC,0.00,VWS V13.01,2013-04-30 07:00:00,
2013-04-30 02:01:00,68.2,66.4,29.77,South,178,0.0,0.0,94,0.00,,SKC,0.00,VWS V13.01,2013-04-30 07:01:00,
2013-04-30 02:02:00,68.0,66.2,29.77,South,178,0.0,0.0,94,0.00,,SKC,0.00,VWS V13.01,2013-04-30 07:02:00,
2013-04-30 02:03:00,68.0,66.2,29.77,South,178,0.0,0.0,94,0.00,,SKC,0.00,VWS V13.01,2013-04-30 07:03:00,
2013-04-30 02:04:00,68.0,66.2,29.77,South,178,0.0,0.0,94,0.00,,SKC,0.00,VWS V13.01,2013-04-30 07:04:00,
2013-04-30 02:05:00,68.0,66.2,29.77,South,178,0.0,0.0,94,0.00,,SKC,0.00,VWS V13.01,2013-04-30 07:05:00,
2013-04-30 02:06:00,68.0,66.2,29.77,South,178,0.0,0.0,94,0.00,,SKC,0.00,VWS V13.01,2013-04-30 07:06:00,
2013-04-30 02:07:00,68.0,66.2,29.77,South,178,0.0,0.0,94,0.00,,SKC,0.00,VWS V13.01,2013-04-30 07:07:00,
2013-04-30 02:08:00,68.0,66.2,29.77,South,178,0.0,0.0,94,0.00,,SKC,0.00,VWS V13.01,2013-04-30 07:08:00,
2013-04-30 02:09:00,68.0,66.2,29.77,South,178,0.0,0.0,94,0.00,,SKC,0.00,VWS V13.01,2013-04-30 07:09:00,
2013-04-30 02:10:00,68.0,66.2,29.77,South,178,0.0,0.0,94,0.00,,SKC,0.00,VWS V13.01,2013-04-30 07:10:00,
2013-04-30 02:11:00,68.0,66.2,29.77,South,178,0.0,0.0,94,0.00,,SKC,0.00,VWS V13.01,2013-04-30 07:11:00,
2013-04-30 02:12:00,67.8,66.0,29.77,South,178,0.0,0.0,94,0.00,,SKC,0.00,VWS V13.01,2013-04-30 07:12:00,
2013-04-30 02:13:00,67.8,66.0,29.77,South,178,0.0,0.0,94,0.00,,SKC,0.00,VWS V13.01,2013-04-30 07:13:00,
2013-04-30 02:14:00,67.8,66.0,29.77,South,178,0.0,0.0,94,0.00,,SKC,0.00,VWS V13.01,2013-04-30 07:14:00,
2013-04-30 02:15:00,67.8,66.0,29.77,South,178,0.0,0.0,94,0.00,,SKC,0.00,VWS V13.01,2013-04-30 07:15:00,
2013-04-30 02:16:00,67.8,66.0,29.77,South,178,0.0,0.0,94,0.00,,SKC,0.00,VWS V13.01,2013-04-30 07:16:00,
2013-04-30 02:17:00,67.6,65.9,29.77,South,178,0.0,0.0,94,0.00,,SKC,0.00,VWS V13.01,2013-04-30 07:17:00,
2013-04-30 02:18:00,67.6,65.9,29.77,South,178,0.0,0.0,94,0.00,,SKC,0.00,VWS V13.01,2013-04-30 07:18:00,
2013-04-30 02:19:00,67.6,65.9,29.77,South,178,0.0,0.0,94,0.00,,SKC,0.00,VWS V13.01,2013-04-30 07:19:00,
2013-04-30 02:20:00,67.6,65.9,29.77,South,178,0.0,0.0,94,0.00,,SKC,0.00,VWS V13.01,2013-04-30 07:20:00,
2013-04-30 02:21:00,67.6,65.9,29.77,South,178,0.0,0.0,94,0.00,,SKC,0.00,VWS V13.01,2013-04-30 07:21:00,
2013-04-30 02:22:00,67.6,65.9,29.77,South,178,0.0,0.0,94,0.00,,SKC,0.00,VWS V13.01,2013-04-30 07:22:00,
2013-04-30 02:23:00,67.5,65.7,29.77,South,178,0.0,0.0,94,0.00,,SKC,0.00,VWS V13.01,2013-04-30 07:23:00,
2013-04-30 02:24:00,67.5,65.7,29.77,South,178,0.0,0.0,94,0.00,,SKC,0.00,VWS V13.01,2013-04-30 07:24:00,
2013-04-30 02:25:00,67.5,65.7,29.77,South,178,0.0,0.0,94,0.00,,SKC,0.00,VWS V13.01,2013-04-30 07:25:00,
2013-04-30 02:26:00,67.5,65.7,29.77,South,178,0.0,0.0,94,0.00,,SKC,0.00,VWS V13.01,2013-04-30 07:26:00,
2013-04-30 02:27:00,67.5,65.7,29.77,South,178,0.0,0.0,94,0.00,,SKC,0.00,VWS V13.01,2013-04-30 07:27:00,
2013-04-30 02:28:00,67.5,65.7,29.77,South,178,0.0,0.0,94,0.00,,SKC,0.00,VWS V13.01,2013-04-30 07:28:00,
2013-04-30 02:29:00,67.5,65.7,29.77,South,178,0.0,0.0,94,0.00,,SKC,0.00,VWS V13.01,2013-04-30 07:29:00,
2013-04-30 02:30:00,67.5,65.4,29.77,South,178,0.0,0.0,93,0.00,,SKC,0.00,VWS V13.01,2013-04-30 07:30:00,
2013-04-30 02:31:00,67.5,65.4,29.77,South,178,0.0,0.0,93,0.00,,SKC,0.00,VWS V13.01,2013-04-30 07:31:00,
2013-04-30 02:32:00,67.5,65.4,29.77,South,178,0.0,0.0,93,0.00,,SKC,0.00,VWS V13.01,2013-04-30 07:32:00,
2013-04-30 02:33:00,67.3,65.2,29.77,South,178,0.0,0.0,93,0.00,,SKC,0.00,VWS V13.01,2013-04-30 07:33:00,
2013-04-30 02:34:00,67.3,65.2,29.77,South,178,0.0,0.0,93,0.00,,SKC,0.00,VWS V13.01,2013-04-30 07:34:00,
2013-04-30 02:35:00,67.3,65.2,29.77,South,178,0.0,0.0,93,0.00,,SKC,0.00,VWS V13.01,2013-04-30 07:35:00,
2013-04-30 02:36:00,67.3,65.2,29.77,South,178,0.0,0.0,93,0.00,,SKC,0.00,VWS V13.01,2013-04-30 07:36:00,
2013-04-30 02:37:00,67.3,65.2,29.77,South,178,0.0,0.0,93,0.00,,SKC,0.00,VWS V13.01,2013-04-30 07:37:00,
2013-04-30 02:38:00,67.3,65.2,29.77,South,178,0.0,0.0,93,0.00,,SKC,0.00,VWS V13.01,2013-04-30 07:38:00,
2013-04-30 02:39:00,67.3,65.2,29.77,South,178,0.0,0.0,93,0.00,,SKC,0.00,VWS V13.01,2013-04-30 07:39:00,
2013-04-30 02:40:00,67.3,65.2,29.77,South,178,0.0,0.0,93,0.00,,SKC,0.00,VWS V13.01,2013-04-30 07:40:00,
2013-04-30 02:41:00,67.3,65.2,29.77,South,178,0.0,0.0,93,0.00,,SKC,0.00,VWS V13.01,2013-04-30 07:41:00,
2013-04-30 02:42:00,67.3,65.2,29.77,South,178,0.0,0.0,93,0.00,,SKC,0.00,VWS V13.01,2013-04-30 07:42:00,
2013-04-30 02:43:00,67.3,65.2,29.77,South,178,0.0,0.0,93,0.00,,SKC,0.00,VWS V13.01,2013-04-30 07:43:00,
2013-04-30 02:44:00,67.3,65.2,29.77,South,178,0.0,0.0,93,0.00,,SKC,0.00,VWS V13.01,2013-04-30 07:44:00,
2013-04-30 02:45:00,67.3,65.2,29.77,South,178,0.0,0.0,93,0.00,,SKC,0.00,VWS V13.01,2013-04-30 07:45:00,
2013-04-30 02:46:00,67.3,65.2,29.77,South,178,0.0,0.0,93,0.00,,SKC,0.00,VWS V13.01,2013-04-30 07:46:00,
2013-04-30 02:47:00,67.3,65.2,29.77,South,178,0.0,0.0,93,0.00,,SKC,0.00,VWS V13.01,2013-04-30 07:47:00,
2013-04-30 02:48:00,67.1,65.0,29.77,South,178,0.0,0.0,93,0.00,,SKC,0.00,VWS V13.01,2013-04-30 07:48:00,
2013-04-30 02:49:00,67.1,65.0,29.77,South,178,0.0,0.0,93,0.00,,SKC,0.00,VWS V13.01,2013-04-30 07:49:00,
2013-04-30 02:50:00,67.1,65.0,29.77,South,178,0.0,0.0,93,0.00,,SKC,0.00,VWS V13.01,2013-04-30 07:50:00,
2013-04-30 02:51:00,67.1,65.0,29.77,South,178,0.0,0.0,93,0.00,,SKC,0.00,VWS V13.01,2013-04-30 07:51:00,
2013-04-30 02:52:00,67.1,65.0,29.77,South,178,0.0,0.0,93,0.00,,SKC,0.00,VWS V13.01,2013-04-30 07:52:00,
2013-04-30 02:53:00,67.1,64.7,29.77,South,178,0.0,0.0,92,0.00,,SKC,0.00,VWS V13.01,2013-04-30 07:53:00,
2013-04-30 02:54:00,66.9,64.5,29.77,South,178,0.0,0.0,92,0.00,,SKC,0.00,VWS V13.01,2013-04-30 07:54:00,
2013-04-30 02:55:00,66.9,64.8,29.77,South,178,0.0,0.0,93,0.00,,SKC,0.00,VWS V13.01,2013-04-30 07:55:00,
2013-04-30 02:56:00,66.9,64.8,29.77,South,178,0.0,0.0,93,0.00,,SKC,0.00,VWS V13.01,2013-04-30 07:56:00,
2013-04-30 02:57:00,66.9,64.8,29.77,South,178,0.0,0.0,93,0.00,,SKC,0.00,VWS V13.01,2013-04-30 07:57:00,
2013-04-30 02:58:00,66.9,64.8,29.77,South,178,0.0,0.0,93,0.00,,SKC,0.00,VWS V13.01,2013-04-30 07:58:00,
2013-04-30 02:59:00,66.9,64.8,29.77,South,178,0.0,0.0,93,0.00,,SKC,0.00,VWS V13.01,2013-04-30 07:59:00,
2013-04-30 03:00:00,66.7,64.7,29.77,South,178,0.0,0.0,93,0.00,,SKC,0.00,VWS V13.01,2013-04-30 08:00:00,
2013-04-30 03:01:00,66.7,64.7,29.77,South,178,0.0,0.0,93,0.00,,SKC,0.00,VWS V13.01,2013-04-30 08:01:00,
2013-04-30 03:02:00,66.7,64.7,29.77,South,178,0.0,0.0,93,0.00,,SKC,0.00,VWS V13.01,2013-04-30 08:02:00,
2013-04-30 03:03:00,66.7,64.7,29.77,South,178,0.0,0.0,93,0.00,,SKC,0.00,VWS V13.01,2013-04-30 08:03:00,
2013-04-30 03:04:00,66.7,64.7,29.77,South,178,0.0,0.0,93,0.00,,SKC,0.00,VWS V13.01,2013-04-30 08:04:00,
2013-04-30 03:05:00,66.7,64.7,29.77,South,178,0.0,0.0,93,0.00,,SKC,0.00,VWS V13.01,2013-04-30 08:05:00,
2013-04-30 03:06:00,66.7,64.7,29.77,South,178,0.0,0.0,93,0.00,,SKC,0.00,VWS V13.01,2013-04-30 08:06:00,
2013-04-30 03:07:00,66.7,64.7,29.77,South,178,0.0,0.0,93,0.00,,SKC,0.00,VWS V13.01,2013-04-30 08:07:00,
2013-04-30 03:08:00,66.6,64.5,29.77,South,178,0.0,0.0,93,0.00,,SKC,0.00,VWS V13.01,2013-04-30 08:08:00,
2013-04-30 03:09:00,66.6,64.5,29.77,South,178,0.0,0.0,93,0.00,,SKC,0.00,VWS V13.01,2013-04-30 08:09:00,
2013-04-30 03:10:00,66.6,64.5,29.77,South,178,0.0,0.0,93,0.00,,SKC,0.00,VWS V13.01,2013-04-30 08:10:00,
2013-04-30 03:11:00,66.6,64.5,29.77,South,178,0.0,0.0,93,0.00,,SKC,0.00,VWS V13.01,2013-04-30 08:11:00,
2013-04-30 03:12:00,66.6,64.5,29.77,South,178,0.0,0.0,93,0.00,,SKC,0.00,VWS V13.01,2013-04-30 08:12:00,
2013-04-30 03:13:00,66.6,64.5,29.77,South,178,0.0,0.0,93,0.00,,SKC,0.00,VWS V13.01,2013-04-30 08:13:00,
2013-04-30 03:14:00,66.6,64.5,29.77,South,178,0.0,0.0,93,0.00,,SKC,0.00,VWS V13.01,2013-04-30 08:14:00,
2013-04-30 03:15:00,66.6,64.5,29.77,South,178,0.0,0.0,93,0.00,,SKC,0.00,VWS V13.01,2013-04-30 08:15:00,
2013-04-30 03:16:00,66.6,64.5,29.77,South,178,0.0,0.0,93,0.00,,SKC,0.00,VWS V13.01,2013-04-30 08:16:00,
2013-04-30 03:17:00,66.6,64.5,29.77,South,178,0.0,0.0,93,0.00,,SKC,0.00,VWS V13.01,2013-04-30 08:17:00,
2013-04-30 03:18:00,66.6,64.5,29.77,South,178,0.0,0.0,93,0.00,,SKC,0.00,VWS V13.01,2013-04-30 08:18:00,
2013-04-30 03:19:00,66.4,64.3,29.74,South,178,0.0,0.0,93,0.00,,SKC,0.00,VWS V13.01,2013-04-30 08:19:00,
2013-04-30 03:20:00,66.4,64.3,29.74,South,178,0.0,0.0,93,0.00,,SKC,0.00,VWS V13.01,2013-04-30 08:20:00,
2013-04-30 03:21:00,66.4,64.3,29.74,South,178,0.0,0.0,93,0.00,,SKC,0.00,VWS V13.01,2013-04-30 08:21:00,
2013-04-30 03:22:00,66.4,64.3,29.74,South,178,0.0,0.0,93,0.00,,SKC,0.00,VWS V13.01,2013-04-30 08:22:00,
2013-04-30 03:23:00,66.4,64.3,29.74,South,178,0.0,0.0,93,0.00,,SKC,0.00,VWS V13.01,2013-04-30 08:23:00,
2013-04-30 03:24:00,66.4,64.3,29.74,South,178,0.0,0.0,93,0.00,,SKC,0.00,VWS V13.01,2013-04-30 08:24:00,
2013-04-30 03:25:00,66.4,64.9,29.74,South,178,0.0,0.0,95,0.00,,SKC,0.00,VWS V13.01,2013-04-30 08:25:00,
2013-04-30 03:26:00,66.4,64.9,29.74,South,178,0.0,0.0,95,0.00,,SKC,0.00,VWS V13.01,2013-04-30 08:26:00,
2013-04-30 03:27:00,66.6,65.4,29.74,South,178,0.0,0.0,96,0.00,,SKC,0.00,VWS V13.01,2013-04-30 08:27:00,
2013-04-30 03:28:00,66.4,64.9,29.74,South,178,0.0,0.0,95,0.00,,SKC,0.00,VWS V13.01,2013-04-30 08:28:00,
2013-04-30 03:29:00,66.4,65.2,29.74,South,178,0.0,0.0,96,0.00,,SKC,0.00,VWS V13.01,2013-04-30 08:29:00,
2013-04-30 03:30:00,66.4,65.2,29.74,South,178,0.0,0.0,96,0.00,,SKC,0.00,VWS V13.01,2013-04-30 08:30:00,
2013-04-30 03:31:00,66.4,65.2,29.74,South,178,0.0,0.0,96,0.00,,SKC,0.00,VWS V13.01,2013-04-30 08:31:00,
2013-04-30 03:32:00,66.4,65.5,29.74,South,178,0.0,0.0,97,0.00,,SKC,0.00,VWS V13.01,2013-04-30 08:32:00,
2013-04-30 03:33:00,66.4,65.5,29.74,South,178,0.0,0.0,97,0.00,,SKC,0.00,VWS V13.01,2013-04-30 08:33:00,
2013-04-30 03:34:00,66.4,65.5,29.74,South,178,0.0,0.0,97,0.00,,SKC,0.00,VWS V13.01,2013-04-30 08:34:00,
2013-04-30 03:35:00,66.4,65.5,29.74,South,178,0.0,0.0,97,0.00,,SKC,0.00,VWS V13.01,2013-04-30 08:35:00,
2013-04-30 03:36:00,66.4,65.5,29.74,South,178,0.0,0.0,97,0.00,,SKC,0.00,VWS V13.01,2013-04-30 08:36:00,
2013-04-30 03:37:00,66.4,65.5,29.74,South,178,0.0,0.0,97,0.00,,SKC,0.00,VWS V13.01,2013-04-30 08:37:00,
2013-04-30 03:38:00,66.6,65.7,29.74,South,178,0.0,0.0,97,0.00,,SKC,0.00,VWS V13.01,2013-04-30 08:38:00,
2013-04-30 03:39:00,66.6,65.7,29.74,South,178,0.0,0.0,97,0.00,,SKC,0.00,VWS V13.01,2013-04-30 08:39:00,
2013-04-30 03:40:00,66.6,65.7,29.74,South,178,0.0,0.0,97,0.00,,SKC,0.00,VWS V13.01,2013-04-30 08:40:00,
2013-04-30 03:41:00,66.6,65.7,29.74,South,178,0.0,0.0,97,0.00,,SKC,0.00,VWS V13.01,2013-04-30 08:41:00,
2013-04-30 03:42:00,66.6,65.7,29.74,South,178,0.0,0.0,97,0.00,,SKC,0.00,VWS V13.01,2013-04-30 08:42:00,
2013-04-30 03:43:00,66.6,65.7,29.74,South,178,0.0,0.0,97,0.00,,SKC,0.00,VWS V13.01,2013-04-30 08:43:00,
2013-04-30 03:44:00,66.6,65.7,29.74,South,178,0.0,0.0,97,0.00,,SKC,0.00,VWS V13.01,2013-04-30 08:44:00,
2013-04-30 03:45:00,66.4,65.2,29.74,South,178,0.0,0.0,96,0.00,,SKC,0.00,VWS V13.01,2013-04-30 08:45:00,
2013-04-30 03:46:00,66.4,65.2,29.74,South,178,0.0,0.0,96,0.00,,SKC,0.00,VWS V13.01,2013-04-30 08:46:00,
2013-04-30 03:47:00,66.4,64.9,29.74,South,178,0.0,0.0,95,0.00,,SKC,0.00,VWS V13.01,2013-04-30 08:47:00,
2013-04-30 03:48:00,66.4,65.2,29.74,South,178,0.0,0.0,96,0.00,,SKC,0.00,VWS V13.01,2013-04-30 08:48:00,
2013-04-30 03:49:00,66.4,65.2,29.74,South,178,0.0,0.0,96,0.00,,SKC,0.00,VWS V13.01,2013-04-30 08:49:00,
2013-04-30 03:50:00,66.4,65.5,29.74,South,178,0.0,0.0,97,0.00,,SKC,0.00,VWS V13.01,2013-04-30 08:50:00,
2013-04-30 03:51:00,66.4,65.5,29.74,South,178,0.0,0.0,97,0.00,,SKC,0.00,VWS V13.01,2013-04-30 08:51:00,
2013-04-30 03:52:00,66.4,65.5,29.74,South,178,0.0,0.0,97,0.00,,SKC,0.00,VWS V13.01,2013-04-30 08:52:00,
2013-04-30 03:53:00,66.2,65.3,29.74,South,178,0.0,0.0,97,0.00,,SKC,0.00,VWS V13.01,2013-04-30 08:53:00,
2013-04-30 03:54:00,66.2,65.3,29.74,South,178,0.0,0.0,97,0.00,,SKC,0.00,VWS V13.01,2013-04-30 08:54:00,
2013-04-30 03:55:00,66.2,65.3,29.74,South,178,0.0,0.0,97,0.00,,SKC,0.00,VWS V13.01,2013-04-30 08:55:00,
2013-04-30 03:56:00,66.2,65.3,29.74,South,178,0.0,0.0,97,0.00,,SKC,0.00,VWS V13.01,2013-04-30 08:56:00,
2013-04-30 03:57:00,66.2,65.0,29.74,South,178,0.0,0.0,96,0.00,,SKC,0.00,VWS V13.01,2013-04-30 08:57:00,
2013-04-30 03:58:00,66.2,65.0,29.74,South,178,0.0,0.0,96,0.00,,SKC,0.00,VWS V13.01,2013-04-30 08:58:00,
2013-04-30 03:59:00,66.2,65.3,29.74,South,178,0.0,0.0,97,0.00,,SKC,0.00,VWS V13.01,2013-04-30 08:59:00,
2013-04-30 04:00:00,66.2,65.3,29.74,South,178,0.0,0.0,97,0.00,,SKC,0.00,VWS V13.01,2013-04-30 09:00:00,
2013-04-30 04:01:00,66.2,65.0,29.74,South,178,0.0,0.0,96,0.00,,SKC,0.00,VWS V13.01,2013-04-30 09:01:00,
2013-04-30 04:02:00,66.0,65.2,29.74,South,178,0.0,0.0,97,0.00,,SKC,0.00,VWS V13.01,2013-04-30 09:02:00,
2013-04-30 04:03:00,66.0,65.2,29.74,South,178,0.0,0.0,97,0.00,,SKC,0.00,VWS V13.01,2013-04-30 09:03:00,
2013-04-30 04:04:00,66.0,64.8,29.74,South,178,0.0,0.0,96,0.00,,SKC,0.00,VWS V13.01,2013-04-30 09:04:00,
2013-04-30 04:05:00,66.0,64.8,29.74,South,178,0.0,0.0,96,0.00,,SKC,0.00,VWS V13.01,2013-04-30 09:05:00,
2013-04-30 04:06:00,66.0,64.8,29.74,South,178,0.0,0.0,96,0.00,,SKC,0.00,VWS V13.01,2013-04-30 09:06:00,
2013-04-30 04:07:00,65.8,64.7,29.74,South,178,0.0,0.0,96,0.00,,SKC,0.00,VWS V13.01,2013-04-30 09:07:00,
2013-04-30 04:08:00,65.8,64.7,29.74,South,178,0.0,0.0,96,0.00,,SKC,0.00,VWS V13.01,2013-04-30 09:08:00,
2013-04-30 04:09:00,65.8,64.7,29.74,South,178,0.0,0.0,96,0.00,,SKC,0.00,VWS V13.01,2013-04-30 09:09:00,
2013-04-30 04:10:00,65.8,64.7,29.74,South,178,0.0,0.0,96,0.00,,SKC,0.00,VWS V13.01,2013-04-30 09:10:00,
2013-04-30 04:11:00,65.8,64.7,29.74,South,178,0.0,0.0,96,0.00,,SKC,0.00,VWS V13.01,2013-04-30 09:11:00,
2013-04-30 04:12:00,65.7,64.5,29.74,South,178,0.0,0.0,96,0.00,,SKC,0.00,VWS V13.01,2013-04-30 09:12:00,
2013-04-30 04:13:00,65.7,64.5,29.74,South,178,0.0,0.0,96,0.00,,SKC,0.00,VWS V13.01,2013-04-30 09:13:00,
2013-04-30 04:14:00,65.7,64.5,29.74,South,178,0.0,0.0,96,0.00,,SKC,0.00,VWS V13.01,2013-04-30 09:14:00,
2013-04-30 04:15:00,65.7,64.5,29.74,South,178,0.0,0.0,96,0.00,,SKC,0.00,VWS V13.01,2013-04-30 09:15:00,
2013-04-30 04:16:00,65.7,64.5,29.74,South,178,0.0,0.0,96,0.00,,SKC,0.00,VWS V13.01,2013-04-30 09:16:00,
2013-04-30 04:17:00,65.7,64.5,29.74,South,178,0.0,0.0,96,0.00,,SKC,0.00,VWS V13.01,2013-04-30 09:17:00,
2013-04-30 04:18:00,65.7,64.5,29.74,South,178,0.0,0.0,96,0.00,,SKC,0.00,VWS V13.01,2013-04-30 09:18:00,
2013-04-30 04:19:00,65.5,64.6,29.74,South,178,0.0,0.0,97,0.00,,SKC,0.00,VWS V13.01,2013-04-30 09:19:00,
2013-04-30 04:20:00,65.5,64.6,29.74,South,178,0.0,0.0,97,0.00,,SKC,0.00,VWS V13.01,2013-04-30 09:20:00,
2013-04-30 04:21:00,65.5,64.6,29.74,South,178,0.0,0.0,97,0.00,,SKC,0.00,VWS V13.01,2013-04-30 09:21:00,
2013-04-30 04:22:00,65.5,64.6,29.74,South,178,0.0,0.0,97,0.00,,SKC,0.00,VWS V13.01,2013-04-30 09:22:00,
2013-04-30 04:23:00,65.7,64.8,29.74,South,178,0.0,0.0,97,0.00,,SKC,0.00,VWS V13.01,2013-04-30 09:23:00,
2013-04-30 04:24:00,65.7,64.8,29.74,South,178,0.0,0.0,97,0.00,,SKC,0.00,VWS V13.01,2013-04-30 09:24:00,
2013-04-30 04:25:00,65.7,65.1,29.74,South,178,0.0,0.0,98,0.00,,SKC,0.00,VWS V13.01,2013-04-30 09:25:00,
2013-04-30 04:26:00,65.7,64.8,29.74,South,178,0.0,0.0,97,0.00,,SKC,0.00,VWS V13.01,2013-04-30 09:26:00,
2013-04-30 04:27:00,65.7,64.8,29.74,South,178,0.0,0.0,97,0.00,,SKC,0.00,VWS V13.01,2013-04-30 09:27:00,
2013-04-30 04:28:00,65.7,64.8,29.74,South,178,0.0,0.0,97,0.00,,SKC,0.00,VWS V13.01,2013-04-30 09:28:00,
2013-04-30 04:29:00,65.7,64.8,29.74,South,178,0.0,0.0,97,0.00,,SKC,0.00,VWS V13.01,2013-04-30 09:29:00,
2013-04-30 04:30:00,65.7,64.8,29.74,South,178,0.0,0.0,97,0.00,,SKC,0.00,VWS V13.01,2013-04-30 09:30:00,
2013-04-30 04:31:00,65.7,64.8,29.74,South,178,0.0,0.0,97,0.00,,SKC,0.00,VWS V13.01,2013-04-30 09:31:00,
2013-04-30 04:32:00,65.7,64.8,29.74,South,178,0.0,0.0,97,0.00,,SKC,0.00,VWS V13.01,2013-04-30 09:32:00,
2013-04-30 06:13:00,65.7,64.8,29.74,South,178,0.0,0.0,97,0.00,,SKC,0.00,VWS V13.01,2013-04-30 11:13:00,
2013-04-30 06:14:00,66.2,66.2,29.77,ENE,62,0.0,0.0,100,0.00,,SKC,0.00,VWS V13.01,2013-04-30 11:14:00,
2013-04-30 06:15:00,66.2,66.2,29.77,ENE,62,0.0,0.0,100,0.00,,SKC,0.00,VWS V13.01,2013-04-30 11:15:00,
2013-04-30 06:16:00,66.2,66.2,29.77,ENE,62,0.0,0.0,100,0.00,,SKC,0.00,VWS V13.01,2013-04-30 11:16:00,
2013-04-30 06:17:00,66.2,66.2,29.77,ENE,62,0.0,0.0,100,0.00,,SKC,0.00,VWS V13.01,2013-04-30 11:17:00,
2013-04-30 06:18:00,66.2,66.2,29.77,ENE,62,0.0,0.0,100,0.00,,SKC,0.00,VWS V13.01,2013-04-30 11:18:00,
2013-04-30 06:19:00,66.2,66.2,29.77,ENE,62,0.0,0.0,100,0.00,,SKC,0.00,VWS V13.01,2013-04-30 11:19:00,
2013-04-30 06:20:00,66.2,66.2,29.77,ENE,62,0.0,0.0,100,0.00,,SKC,0.00,VWS V13.01,2013-04-30 11:20:00,
2013-04-30 06:21:00,66.2,66.2,29.77,ENE,62,0.0,0.0,100,0.00,,SKC,0.00,VWS V13.01,2013-04-30 11:21:00,
2013-04-30 06:22:00,66.2,66.2,29.77,ENE,62,0.0,0.0,100,0.00,,SKC,0.00,VWS V13.01,2013-04-30 11:22:00,
2013-04-30 06:23:00,66.4,66.4,29.77,ENE,62,0.0,0.0,100,0.00,,SKC,0.00,VWS V13.01,2013-04-30 11:23:00,
2013-04-30 06:24:00,66.4,66.4,29.77,ENE,62,0.0,0.0,100,0.00,,SKC,0.00,VWS V13.01,2013-04-30 11:24:00,
2013-04-30 06:25:00,66.4,66.4,29.77,ENE,62,0.0,0.0,100,0.00,,SKC,0.00,VWS V13.01,2013-04-30 11:25:00,
2013-04-30 06:26:00,66.4,66.4,29.77,ENE,62,0.0,0.0,100,0.00,,SKC,0.00,VWS V13.01,2013-04-30 11:26:00,
2013-04-30 06:27:00,66.4,66.4,29.77,ENE,62,0.0,0.0,100,0.00,,SKC,0.00,VWS V13.01,2013-04-30 11:27:00,
2013-04-30 06:28:00,66.4,66.4,29.77,ENE,62,0.0,0.0,100,0.00,,SKC,0.00,VWS V13.01,2013-04-30 11:28:00,
2013-04-30 06:29:00,66.4,66.4,29.77,ENE,62,0.0,0.0,100,0.00,,SKC,0.00,VWS V13.01,2013-04-30 11:29:00,
2013-04-30 06:30:00,66.4,66.4,29.77,ENE,62,0.0,0.0,100,0.00,,SKC,0.00,VWS V13.01,2013-04-30 11:30:00,
2013-04-30 06:31:00,66.6,66.6,29.77,ENE,62,0.0,0.0,100,0.00,,SKC,0.00,VWS V13.01,2013-04-30 11:31:00,
2013-04-30 06:32:00,66.6,66.6,29.77,ENE,62,0.0,0.0,100,0.00,,SKC,0.00,VWS V13.01,2013-04-30 11:32:00,
2013-04-30 06:33:00,66.6,66.6,29.77,ENE,62,0.0,0.0,100,0.00,,SKC,0.00,VWS V13.01,2013-04-30 11:33:00,
2013-04-30 06:34:00,66.6,66.6,29.77,ENE,62,0.0,0.0,100,0.00,,SKC,0.00,VWS V13.01,2013-04-30 11:34:00,
2013-04-30 06:35:00,66.6,66.6,29.77,ENE,62,0.0,0.0,100,0.00,,SKC,0.00,VWS V13.01,2013-04-30 11:35:00,
2013-04-30 06:36:00,66.7,66.7,29.77,ENE,62,0.0,0.0,100,0.00,,SKC,0.00,VWS V13.01,2013-04-30 11:36:00,
2013-04-30 06:37:00,66.7,66.7,29.77,ENE,62,0.0,0.0,100,0.00,,SKC,0.00,VWS V13.01,2013-04-30 11:37:00,
2013-04-30 06:38:00,66.7,66.7,29.77,ENE,62,0.0,0.0,100,0.00,,SKC,0.00,VWS V13.01,2013-04-30 11:38:00,
2013-04-30 06:39:00,66.7,66.7,29.77,ENE,62,0.0,0.0,100,0.00,,SKC,0.00,VWS V13.01,2013-04-30 11:39:00,
2013-04-30 06:40:00,66.7,66.7,29.77,ENE,62,0.0,0.0,100,0.00,,SKC,0.00,VWS V13.01,2013-04-30 11:40:00,
2013-04-30 06:41:00,66.7,66.7,29.77,ENE,62,0.0,0.0,100,0.00,,SKC,0.00,VWS V13.01,2013-04-30 11:41:00,
2013-04-30 06:42:00,66.7,66.7,29.77,ENE,62,0.0,0.0,100,0.00,,SKC,0.00,VWS V13.01,2013-04-30 11:42:00,
2013-04-30 06:43:00,66.7,66.7,29.77,ENE,62,0.0,0.0,100,0.00,,SKC,0.00,VWS V13.01,2013-04-30 11:43:00,
2013-04-30 06:44:00,66.7,66.7,29.77,ENE,62,0.0,0.0,100,0.00,,SKC,0.00,VWS V13.01,2013-04-30 11:44:00,
2013-04-30 06:45:00,66.9,66.9,29.77,ENE,62,0.0,0.0,100,0.00,,SKC,0.00,VWS V13.01,2013-04-30 11:45:00,
2013-04-30 06:46:00,66.9,66.9,29.77,ENE,62,0.0,0.0,100,0.00,,SKC,0.00,VWS V13.01,2013-04-30 11:46:00,
2013-04-30 06:47:00,66.9,66.9,29.77,ENE,62,0.0,0.0,100,0.00,,SKC,0.00,VWS V13.01,2013-04-30 11:47:00,
2013-04-30 06:48:00,66.9,66.9,29.77,ENE,62,0.0,0.0,100,0.00,,SKC,0.00,VWS V13.01,2013-04-30 11:48:00,
2013-04-30 06:49:00,66.9,66.9,29.77,ENE,62,0.0,0.0,100,0.00,,SKC,0.00,VWS V13.01,2013-04-30 11:49:00,
2013-04-30 06:50:00,66.9,66.9,29.77,ENE,62,0.0,0.0,100,0.00,,SKC,0.00,VWS V13.01,2013-04-30 11:50:00,
2013-04-30 06:51:00,66.9,66.9,29.77,ENE,62,0.0,0.0,100,0.00,,SKC,0.00,VWS V13.01,2013-04-30 11:51:00,
2013-04-30 06:52:00,66.9,66.9,29.77,ENE,62,0.0,0.0,100,0.00,,SKC,0.00,VWS V13.01,2013-04-30 11:52:00,
2013-04-30 06:53:00,66.9,66.9,29.77,ENE,62,0.0,0.0,100,0.00,,SKC,0.00,VWS V13.01,2013-04-30 11:53:00,
2013-04-30 06:54:00,66.9,66.9,29.77,ENE,62,0.0,0.0,100,0.00,,SKC,0.00,VWS V13.01,2013-04-30 11:54:00,
2013-04-30 06:55:00,67.1,67.1,29.77,ENE,62,0.0,0.0,100,0.00,,SKC,0.00,VWS V13.01,2013-04-30 11:55:00,
2013-04-30 06:56:00,67.1,67.1,29.77,ENE,62,0.0,0.0,100,0.00,,SKC,0.00,VWS V13.01,2013-04-30 11:56:00,
2013-04-30 06:57:00,67.1,67.1,29.77,ENE,62,0.0,0.0,100,0.00,,SKC,0.00,VWS V13.01,2013-04-30 11:57:00,
2013-04-30 06:58:00,67.3,67.3,29.77,ENE,62,0.0,0.0,100,0.00,,SKC,0.00,VWS V13.01,2013-04-30 11:58:00,
2013-04-30 06:59:00,67.3,67.3,29.77,ENE,62,0.0,0.0,100,0.00,,SKC,0.00,VWS V13.01,2013-04-30 11:59:00,
2013-04-30 07:00:00,67.5,67.5,29.77,ENE,62,0.0,0.0,100,0.00,,SKC,0.00,VWS V13.01,2013-04-30 12:00:00,
2013-04-30 07:01:00,67.5,67.5,29.77,ENE,62,0.0,0.0,100,0.00,,SKC,0.00,VWS V13.01,2013-04-30 12:01:00,
2013-04-30 07:02:00,67.5,67.5,29.77,ENE,62,0.0,0.0,100,0.00,,SKC,0.00,VWS V13.01,2013-04-30 12:02:00,
2013-04-30 07:03:00,67.6,67.6,29.77,ENE,62,0.0,0.0,100,0.00,,SKC,0.00,VWS V13.01,2013-04-30 12:03:00,
2013-04-30 07:04:00,67.6,67.6,29.80,ENE,62,0.0,0.0,100,0.00,,SKC,0.00,VWS V13.01,2013-04-30 12:04:00,
2013-04-30 07:05:00,67.6,67.6,29.80,ENE,62,0.0,0.0,100,0.00,,SKC,0.00,VWS V13.01,2013-04-30 12:05:00,
2013-04-30 07:06:00,67.6,67.6,29.80,ENE,62,0.0,0.0,100,0.00,,SKC,0.00,VWS V13.01,2013-04-30 12:06:00,
2013-04-30 07:07:00,67.8,67.8,29.80,ENE,62,0.0,0.0,100,0.00,,SKC,0.00,VWS V13.01,2013-04-30 12:07:00,
2013-04-30 07:08:00,67.8,67.8,29.80,ENE,62,0.0,0.0,100,0.00,,SKC,0.00,VWS V13.01,2013-04-30 12:08:00,
2013-04-30 07:09:00,68.0,68.0,29.80,ENE,62,0.0,0.0,100,0.00,,SKC,0.00,VWS V13.01,2013-04-30 12:09:00,
2013-04-30 07:10:00,68.0,68.0,29.80,ENE,62,0.0,0.0,100,0.00,,SKC,0.00,VWS V13.01,2013-04-30 12:10:00,
2013-04-30 07:11:00,68.0,68.0,29.80,ENE,62,0.0,0.0,100,0.00,,SKC,0.00,VWS V13.01,2013-04-30 12:11:00,
2013-04-30 07:12:00,68.2,68.2,29.80,ENE,62,0.0,0.0,100,0.00,,SKC,0.00,VWS V13.01,2013-04-30 12:12:00,
2013-04-30 07:13:00,68.4,68.4,29.80,ENE,62,0.0,0.0,100,0.00,,SKC,0.00,VWS V13.01,2013-04-30 12:13:00,
2013-04-30 07:14:00,68.4,68.4,29.80,ENE,62,0.0,0.0,100,0.00,,SKC,0.00,VWS V13.01,2013-04-30 12:14:00,
2013-04-30 07:15:00,68.4,68.4,29.80,ENE,62,0.0,0.0,100,0.00,,SKC,0.00,VWS V13.01,2013-04-30 12:15:00,
2013-04-30 07:16:00,68.4,68.4,29.80,ENE,62,0.0,0.0,100,0.00,,SKC,0.00,VWS V13.01,2013-04-30 12:16:00,
2013-04-30 07:17:00,68.4,68.4,29.80,ENE,62,0.0,0.0,100,0.00,,SKC,0.00,VWS V13.01,2013-04-30 12:17:00,
2013-04-30 07:18:00,68.4,68.4,29.80,ENE,62,0.0,0.0,100,0.00,,SKC,0.00,VWS V13.01,2013-04-30 12:18:00,
2013-04-30 07:19:00,68.4,68.4,29.80,ENE,62,0.0,0.0,100,0.00,,SKC,0.00,VWS V13.01,2013-04-30 12:19:00,
2013-04-30 07:20:00,68.5,68.5,29.80,ENE,62,0.0,0.0,100,0.00,,SKC,0.00,VWS V13.01,2013-04-30 12:20:00,
2013-04-30 07:21:00,68.5,68.5,29.80,ENE,62,0.0,0.0,100,0.00,,SKC,0.00,VWS V13.01,2013-04-30 12:21:00,
2013-04-30 07:22:00,68.5,68.5,29.80,ENE,62,0.0,0.0,100,0.00,,SKC,0.00,VWS V13.01,2013-04-30 12:22:00,
2013-04-30 07:23:00,68.7,68.7,29.80,ENE,62,0.0,0.0,100,0.00,,SKC,0.00,VWS V13.01,2013-04-30 12:23:00,
2013-04-30 07:24:00,68.7,68.7,29.80,ENE,62,0.0,0.0,100,0.00,,SKC,0.00,VWS V13.01,2013-04-30 12:24:00,
2013-04-30 07:25:00,68.7,68.7,29.80,ENE,62,0.0,0.0,100,0.00,,SKC,0.00,VWS V13.01,2013-04-30 12:25:00,
2013-04-30 07:26:00,68.7,68.7,29.80,NE,53,3.1,4.0,100,0.00,,SKC,0.00,VWS V13.01,2013-04-30 12:26:00,
2013-04-30 07:27:00,68.9,68.9,29.80,ENE,60,0.0,3.1,100,0.00,,SKC,0.00,VWS V13.01,2013-04-30 12:27:00,
2013-04-30 07:28:00,69.1,69.1,29.80,ENE,77,0.0,0.0,100,0.00,,SKC,0.00,VWS V13.01,2013-04-30 12:28:00,
2013-04-30 07:29:00,69.1,69.1,29.80,ENE,77,0.0,0.0,100,0.00,,SKC,0.00,VWS V13.01,2013-04-30 12:29:00,
2013-04-30 07:30:00,69.1,69.1,29.80,ENE,65,0.0,0.0,100,0.00,,SKC,0.00,VWS V13.01,2013-04-30 12:30:00,
2013-04-30 07:31:00,69.1,69.1,29.80,ENE,66,0.0,0.0,100,0.00,,SKC,0.00,VWS V13.01,2013-04-30 12:31:00,
2013-04-30 07:32:00,69.3,69.3,29.80,ENE,65,0.0,0.0,100,0.00,,SKC,0.00,VWS V13.01,2013-04-30 12:32:00,
2013-04-30 07:33:00,69.3,69.3,29.80,NNE,18,0.0,3.1,100,0.00,,SKC,0.00,VWS V13.01,2013-04-30 12:33:00,
2013-04-30 07:34:00,69.3,69.3,29.80,NNE,18,0.0,3.1,100,0.00,,SKC,0.00,VWS V13.01,2013-04-30 12:34:00,
2013-04-30 07:35:00,69.3,69.3,29.80,NNE,31,0.0,0.0,100,0.00,,SKC,0.00,VWS V13.01,2013-04-30 12:35:00,
2013-04-30 07:36:00,69.4,69.4,29.80,NE,46,0.0,0.0,100,0.00,,SKC,0.00,VWS V13.01,2013-04-30 12:36:00,
2013-04-30 07:37:00,69.4,69.4,29.80,East,86,0.0,0.0,100,0.00,,SKC,0.00,VWS V13.01,2013-04-30 12:37:00,
2013-04-30 07:38:00,69.4,69.4,29.80,ENE,57,0.0,0.0,100,0.00,,SKC,0.00,VWS V13.01,2013-04-30 12:38:00,
2013-04-30 07:39:00,69.4,69.4,29.80,NE,35,2.2,2.2,100,0.00,,SKC,0.00,VWS V13.01,2013-04-30 12:39:00,
2013-04-30 07:40:00,69.6,69.6,29.80,East,81,0.0,2.7,100,0.00,,SKC,0.00,VWS V13.01,2013-04-30 12:40:00,
2013-04-30 07:41:00,69.8,69.8,29.80,East,79,0.0,0.0,100,0.00,,SKC,0.00,VWS V13.01,2013-04-30 12:41:00,
2013-04-30 07:42:00,70.0,70.0,29.80,ENE,78,3.1,3.1,100,0.00,,SKC,0.00,VWS V13.01,2013-04-30 12:42:00,
2013-04-30 07:43:00,70.2,70.2,29.80,East,93,0.0,0.0,100,0.00,,SKC,0.00,VWS V13.01,2013-04-30 12:43:00,
2013-04-30 07:44:00,70.2,70.2,29.80,ENE,73,2.2,2.2,100,0.00,,SKC,0.00,VWS V13.01,2013-04-30 12:44:00,
2013-04-30 07:45:00,70.2,70.2,29.80,East,82,3.6,5.8,100,0.00,,SKC,0.00,VWS V13.01,2013-04-30 12:45:00,
2013-04-30 07:46:00,70.3,70.3,29.80,ESE,121,0.0,3.6,100,0.00,,SKC,0.00,VWS V13.01,2013-04-30 12:46:00,
2013-04-30 07:47:00,70.5,70.5,29.80,ESE,113,2.7,4.0,100,0.00,,SKC,0.00,VWS V13.01,2013-04-30 12:47:00,
2013-04-30 07:48:00,70.7,70.7,29.80,ESE,105,2.7,2.7,100,0.00,,SKC,0.00,VWS V13.01,2013-04-30 12:48:00,
2013-04-30 07:49:00,70.7,70.7,29.77,ENE,60,0.0,2.7,100,0.00,,SKC,0.00,VWS V13.01,2013-04-30 12:49:00,
2013-04-30 07:50:00,70.7,70.7,29.77,East,80,0.0,3.1,100,0.00,,SKC,0.00,VWS V13.01,2013-04-30 12:50:00,
2013-04-30 07:51:00,70.9,70.9,29.77,ENE,60,3.1,3.1,100,0.00,,SKC,0.00,VWS V13.01,2013-04-30 12:51:00,
2013-04-30 07:52:00,70.9,70.9,29.77,NE,53,0.0,3.1,100,0.00,,SKC,0.00,VWS V13.01,2013-04-30 12:52:00,
2013-04-30 07:53:00,70.9,70.6,29.77,NNE,21,0.0,0.0,99,0.00,,SKC,0.00,VWS V13.01,2013-04-30 12:53:00,
2013-04-30 07:54:00,70.9,70.6,29.77,NNE,21,0.0,0.0,99,0.00,,SKC,0.00,VWS V13.01,2013-04-30 12:54:00,
2013-04-30 07:55:00,70.9,70.9,29.77,ENE,57,3.1,3.1,100,0.00,,SKC,0.00,VWS V13.01,2013-04-30 12:55:00,
2013-04-30 07:56:00,70.9,70.0,29.77,ENE,76,2.7,3.6,97,0.00,,SKC,0.00,VWS V13.01,2013-04-30 12:56:00,
2013-04-30 07:57:00,70.9,69.7,29.77,ENE,60,0.0,3.1,96,0.00,,SKC,0.00,VWS V13.01,2013-04-30 12:57:00,
2013-04-30 07:58:00,71.1,69.9,29.77,ENE,69,0.0,0.0,96,0.00,,SKC,0.00,VWS V13.01,2013-04-30 12:58:00,
2013-04-30 07:59:00,71.1,70.5,29.77,ENE,57,0.0,0.0,98,0.00,,SKC,0.00,VWS V13.01,2013-04-30 12:59:00,
2013-04-30 08:00:00,71.2,70.9,29.77,ENE,78,0.0,0.0,99,0.00,,SKC,0.00,VWS V13.01,2013-04-30 13:00:00,
2013-04-30 08:01:00,71.4,71.4,29.77,East,95,0.0,0.0,100,0.00,,SKC,0.00,VWS V13.01,2013-04-30 13:01:00,
2013-04-30 08:02:00,71.4,71.4,29.77,ENE,60,0.0,0.0,100,0.00,,SKC,0.00,VWS V13.01,2013-04-30 13:02:00,
2013-04-30 08:03:00,71.6,69.8,29.77,NE,43,0.0,0.0,94,0.00,,SKC,0.00,VWS V13.01,2013-04-30 13:03:00,
2013-04-30 08:04:00,71.8,70.0,29.77,NNE,30,0.0,0.0,94,0.00,,SKC,0.00,VWS V13.01,2013-04-30 13:04:00,
2013-04-30 08:05:00,71.8,70.0,29.77,ENE,62,4.0,4.0,94,0.00,,SKC,0.00,VWS V13.01,2013-04-30 13:05:00,
2013-04-30 08:06:00,72.0,70.1,29.77,East,88,0.0,4.0,94,0.00,,SKC,0.00,VWS V13.01,2013-04-30 13:06:00,
2013-04-30 08:07:00,72.1,70.0,29.77,East,96,0.0,0.0,93,0.00,,SKC,0.00,VWS V13.01,2013-04-30 13:07:00,
2013-04-30 08:08:00,72.3,70.2,29.77,ENE,57,0.0,0.0,93,0.00,,SKC,0.00,VWS V13.01,2013-04-30 13:08:00,
2013-04-30 08:09:00,72.3,70.2,29.77,SE,137,0.0,0.0,93,0.00,,SKC,0.00,VWS V13.01,2013-04-30 13:09:00,
2013-04-30 08:10:00,72.7,70.5,29.77,ESE,110,0.0,0.0,93,0.00,,SKC,0.00,VWS V13.01,2013-04-30 13:10:00,
2013-04-30 08:11:00,72.7,70.5,29.77,East,97,0.0,0.0,93,0.00,,SKC,0.00,VWS V13.01,2013-04-30 13:11:00,
2013-04-30 08:12:00,73.0,70.6,29.77,East,83,4.0,4.0,92,0.00,,SKC,0.00,VWS V13.01,2013-04-30 13:12:00,
2013-04-30 08:13:00,73.2,70.4,29.77,East,89,0.0,0.0,91,0.00,,SKC,0.00,VWS V13.01,2013-04-30 13:13:00,
2013-04-30 08:14:00,73.4,70.3,29.77,East,95,0.0,4.9,90,0.00,,SKC,0.00,VWS V13.01,2013-04-30 13:14:00,
2013-04-30 08:15:00,73.4,70.3,29.77,East,79,3.6,4.9,90,0.00,,SKC,0.00,VWS V13.01,2013-04-30 13:15:00,
2013-04-30 08:16:00,73.6,70.8,29.77,SSE,156,0.0,3.6,91,0.00,,SKC,0.00,VWS V13.01,2013-04-30 13:16:00,
2013-04-30 08:17:00,73.6,70.8,29.77,ESE,121,0.0,2.2,91,0.00,,SKC,0.00,VWS V13.01,2013-04-30 13:17:00,
2013-04-30 08:18:00,73.8,70.7,29.77,East,92,0.0,0.0,90,0.00,,SKC,0.00,VWS V13.01,2013-04-30 13:18:00,
2013-04-30 08:19:00,73.8,71.0,29.77,SE,125,0.0,0.0,91,0.00,,SKC,0.00,VWS V13.01,2013-04-30 13:19:00,
2013-04-30 08:20:00,73.9,70.8,29.77,SE,124,0.0,0.0,90,0.00,,SKC,0.00,VWS V13.01,2013-04-30 13:20:00,
2013-04-30 08:21:00,74.1,71.0,29.77,ESE,123,0.0,0.0,90,0.00,,SKC,0.00,VWS V13.01,2013-04-30 13:21:00,
2013-04-30 08:22:00,74.1,71.0,29.77,SE,141,0.0,0.0,90,0.00,,SKC,0.00,VWS V13.01,2013-04-30 13:22:00,
2013-04-30 08:23:00,74.5,71.4,29.77,SE,139,0.0,0.0,90,0.00,,SKC,0.00,VWS V13.01,2013-04-30 13:23:00,
2013-04-30 08:24:00,74.7,71.5,29.77,SE,131,2.2,2.2,90,0.00,,SKC,0.00,VWS V13.01,2013-04-30 13:24:00,
2013-04-30 08:25:00,74.8,71.1,29.77,SE,131,0.0,2.2,88,0.00,,SKC,0.00,VWS V13.01,2013-04-30 13:25:00,
2013-04-30 08:26:00,75.0,71.2,29.77,East,86,3.1,3.1,88,0.00,,SKC,0.00,VWS V13.01,2013-04-30 13:26:00,
2013-04-30 08:27:00,75.0,70.2,29.77,SE,126,2.7,5.4,85,0.00,,SKC,0.00,VWS V13.01,2013-04-30 13:27:00,
2013-04-30 08:28:00,75.2,70.4,29.77,ENE,57,3.6,3.6,85,0.00,,SKC,0.00,VWS V13.01,2013-04-30 13:28:00,
2013-04-30 08:29:00,75.4,69.9,29.77,ENE,57,2.7,3.6,83,0.00,,SKC,0.00,VWS V13.01,2013-04-30 13:29:00,
2013-04-30 08:30:00,75.4,68.8,29.77,East,101,2.2,2.7,80,0.00,,SKC,0.00,VWS V13.01,2013-04-30 13:30:00,
2013-04-30 08:31:00,75.6,69.0,29.77,SE,134,3.6,4.0,80,0.00,,SKC,0.00,VWS V13.01,2013-04-30 13:31:00,
2013-04-30 08:32:00,75.6,69.3,29.77,East,81,4.0,4.0,81,0.00,,SKC,0.00,VWS V13.01,2013-04-30 13:32:00,
2013-04-30 08:33:00,75.6,69.7,29.77,ESE,121,3.1,3.1,82,0.00,,SKC,0.00,VWS V13.01,2013-04-30 13:33:00,
2013-04-30 08:34:00,75.6,69.7,29.77,ENE,69,2.7,3.1,82,0.00,,SKC,0.00,VWS V13.01,2013-04-30 13:34:00,
2013-04-30 08:35:00,75.6,69.7,29.77,SE,135,2.2,2.7,82,0.00,,SKC,0.00,VWS V13.01,2013-04-30 13:35:00,
2013-04-30 08:36:00,75.6,70.0,29.77,SE,131,2.7,2.7,83,0.00,,SKC,0.00,VWS V13.01,2013-04-30 13:36:00,
2013-04-30 08:37:00,75.6,70.0,29.77,South,190,0.0,2.7,83,0.00,,SKC,0.00,VWS V13.01,2013-04-30 13:37:00,
2013-04-30 08:38:00,75.6,69.0,29.77,SSE,163,5.4,6.3,80,0.00,,SKC,0.00,VWS V13.01,2013-04-30 13:38:00,
2013-04-30 08:39:00,75.6,69.0,29.77,East,84,4.0,6.3,80,0.00,,SKC,0.00,VWS V13.01,2013-04-30 13:39:00,
2013-04-30 08:40:00,75.7,69.5,29.77,ESE,102,3.1,4.0,81,0.00,,SKC,0.00,VWS V13.01,2013-04-30 13:40:00,
2013-04-30 08:41:00,75.7,69.9,29.77,South,172,2.7,3.1,82,0.00,,SKC,0.00,VWS V13.01,2013-04-30 13:41:00,
2013-04-30 08:42:00,75.9,70.0,29.77,SE,142,3.1,6.3,82,0.00,,SKC,0.00,VWS V13.01,2013-04-30 13:42:00,
2013-04-30 08:43:00,75.9,68.9,29.77,SE,132,3.6,3.6,79,0.00,,SKC,0.00,VWS V13.01,2013-04-30 13:43:00,
2013-04-30 08:44:00,76.1,68.4,29.77,SSE,147,4.0,4.9,77,0.00,,SKC,0.00,VWS V13.01,2013-04-30 13:44:00,
2013-04-30 08:45:00,76.3,68.6,29.77,SSW,193,4.9,4.9,77,0.00,,SKC,0.00,VWS V13.01,2013-04-30 13:45:00,
2013-04-30 08:46:00,76.5,69.5,29.77,ESE,119,4.0,6.3,79,0.00,,SKC,0.00,VWS V13.01,2013-04-30 13:46:00,
2013-04-30 08:47:00,76.6,68.9,29.77,ENE,69,6.7,6.7,77,0.00,,SKC,0.00,VWS V13.01,2013-04-30 13:47:00,
2013-04-30 08:48:00,76.8,69.4,29.77,ESE,103,6.3,6.3,78,0.00,,SKC,0.00,VWS V13.01,2013-04-30 13:48:00,
2013-04-30 08:49:00,76.8,69.1,29.77,ESE,105,3.1,6.3,77,0.00,,SKC,0.00,VWS V13.01,2013-04-30 13:49:00,
2013-04-30 08:50:00,76.8,68.7,29.77,ESE,110,5.4,5.8,76,0.00,,SKC,0.00,VWS V13.01,2013-04-30 13:50:00,
2013-04-30 08:51:00,76.8,69.1,29.77,SE,130,3.6,5.8,77,0.00,,SKC,0.00,VWS V13.01,2013-04-30 13:51:00,
2013-04-30 08:52:00,76.8,69.1,29.77,East,92,4.9,5.8,77,0.00,,SKC,0.00,VWS V13.01,2013-04-30 13:52:00,
2013-04-30 08:53:00,76.8,69.1,29.77,East,86,6.3,6.3,77,0.00,,SKC,0.00,VWS V13.01,2013-04-30 13:53:00,
2013-04-30 08:54:00,76.8,69.4,29.77,ESE,116,5.8,6.3,78,0.00,,SKC,0.00,VWS V13.01,2013-04-30 13:54:00,
2013-04-30 08:55:00,77.0,69.2,29.77,East,99,5.8,7.6,77,0.00,,SKC,0.00,VWS V13.01,2013-04-30 13:55:00,
2013-04-30 08:56:00,77.0,68.9,29.77,SSE,162,2.2,5.8,76,0.00,,SKC,0.00,VWS V13.01,2013-04-30 13:56:00,
2013-04-30 08:57:00,76.8,68.7,29.77,SE,130,3.1,3.1,76,0.00,,SKC,0.00,VWS V13.01,2013-04-30 13:57:00,
2013-04-30 08:58:00,77.0,68.9,29.77,SSE,152,4.0,4.0,76,0.00,,SKC,0.00,VWS V13.01,2013-04-30 13:58:00,
2013-04-30 08:59:00,77.0,69.2,29.77,SSE,161,2.7,4.0,77,0.00,,SKC,0.00,VWS V13.01,2013-04-30 13:59:00,
2013-04-30 09:00:00,77.2,69.4,29.77,SE,130,5.4,5.4,77,0.00,,SKC,0.00,VWS V13.01,2013-04-30 14:00:00,
2013-04-30 09:01:00,77.2,69.4,29.77,SE,146,5.8,8.7,77,0.00,,SKC,0.00,VWS V13.01,2013-04-30 14:01:00,
2013-04-30 09:02:00,77.2,69.4,29.77,SE,135,4.0,6.3,77,0.00,,SKC,0.00,VWS V13.01,2013-04-30 14:02:00,
2013-04-30 09:03:00,77.2,69.0,29.77,SE,133,2.7,3.6,76,0.00,,SKC,0.00,VWS V13.01,2013-04-30 14:03:00,
2013-04-30 09:04:00,77.2,69.0,29.77,ESE,106,2.2,3.6,76,0.00,,SKC,0.00,VWS V13.01,2013-04-30 14:04:00,
2013-04-30 09:05:00,77.4,69.2,29.77,SE,144,3.6,5.8,76,0.00,,SKC,0.00,VWS V13.01,2013-04-30 14:05:00,
2013-04-30 09:06:00,77.4,68.8,29.77,South,176,5.4,8.7,75,0.00,,SKC,0.00,VWS V13.01,2013-04-30 14:06:00,
2013-04-30 09:07:00,77.5,69.0,29.77,ESE,105,8.3,8.3,75,0.00,,SKC,0.00,VWS V13.01,2013-04-30 14:07:00,
2013-04-30 09:08:00,77.5,69.0,29.77,SE,131,5.4,5.4,75,0.00,,SKC,0.00,VWS V13.01,2013-04-30 14:08:00,
2013-04-30 09:09:00,77.5,69.0,29.77,ESE,122,7.6,7.6,75,0.00,,SKC,0.00,VWS V13.01,2013-04-30 14:09:00,
2013-04-30 09:10:00,77.5,69.0,29.77,ESE,107,5.4,7.6,75,0.00,,SKC,0.00,VWS V13.01,2013-04-30 14:10:00,
2013-04-30 09:11:00,77.5,69.0,29.77,SSE,165,4.0,8.3,75,0.00,,SKC,0.00,VWS V13.01,2013-04-30 14:11:00,
2013-04-30 09:12:00,77.5,69.0,29.77,SSE,161,4.9,7.6,75,0.00,,SKC,0.00,VWS V13.01,2013-04-30 14:12:00,
2013-04-30 09:13:00,77.7,69.6,29.77,South,189,6.3,6.3,76,0.00,,SKC,0.00,VWS V13.01,2013-04-30 14:13:00,
2013-04-30 09:14:00,77.7,69.2,29.77,SSE,151,2.7,6.3,75,0.00,,SKC,0.00,VWS V13.01,2013-04-30 14:14:00,
2013-04-30 09:15:00,78.1,69.9,29.77,SSE,147,5.8,5.8,76,0.00,,SKC,0.00,VWS V13.01,2013-04-30 14:15:00,
2013-04-30 09:16:00,77.9,69.3,29.77,ESE,121,4.0,5.8,75,0.00,,SKC,0.00,VWS V13.01,2013-04-30 14:16:00,
2013-04-30 09:17:00,78.1,69.5,29.77,ESE,103,0.0,5.8,75,0.00,,SKC,0.00,VWS V13.01,2013-04-30 14:17:00,
2013-04-30 09:18:00,78.1,69.5,29.77,South,180,5.8,5.8,75,0.00,,SKC,0.00,VWS V13.01,2013-04-30 14:18:00,
2013-04-30 09:19:00,78.1,69.5,29.77,ESE,102,5.8,5.8,75,0.00,,SKC,0.00,VWS V13.01,2013-04-30 14:19:00,
2013-04-30 09:20:00,78.1,69.5,29.80,ESE,110,5.4,6.3,75,0.00,,SKC,0.00,VWS V13.01,2013-04-30 14:20:00,
2013-04-30 09:21:00,78.1,69.1,29.80,South,174,2.7,6.3,74,0.00,,SKC,0.00,VWS V13.01,2013-04-30 14:21:00,
2013-04-30 09:22:00,78.1,69.5,29.80,SSE,161,3.6,4.9,75,0.00,,SKC,0.00,VWS V13.01,2013-04-30 14:22:00,
2013-04-30 09:23:00,77.9,69.3,29.80,SSW,193,4.0,4.0,75,0.00,,SKC,0.00,VWS V13.01,2013-04-30 14:23:00,
2013-04-30 09:24:00,78.1,69.5,29.80,South,181,5.8,6.3,75,0.00,,SKC,0.00,VWS V13.01,2013-04-30 14:24:00,
2013-04-30 09:25:00,78.1,69.5,29.80,South,185,4.9,8.7,75,0.00,,SKC,0.00,VWS V13.01,2013-04-30 14:25:00,
2013-04-30 09:26:00,78.3,69.7,29.80,ESE,115,2.7,4.9,75,0.00,,SKC,0.00,VWS V13.01,2013-04-30 14:26:00,
2013-04-30 09:27:00,78.4,69.9,29.80,SSW,198,3.6,4.0,75,0.00,,SKC,0.00,VWS V13.01,2013-04-30 14:27:00,
2013-04-30 09:28:00,78.4,69.9,29.80,SSE,161,5.8,8.3,75,0.00,,SKC,0.00,VWS V13.01,2013-04-30 14:28:00,
2013-04-30 09:29:00,78.4,69.5,29.80,SE,142,4.0,8.3,74,0.00,,SKC,0.00,VWS V13.01,2013-04-30 14:29:00,
2013-04-30 09:30:00,78.4,69.1,29.80,SSE,165,3.6,5.8,73,0.00,,SKC,0.00,VWS V13.01,2013-04-30 14:30:00,
2013-04-30 09:31:00,78.4,69.1,29.80,SE,130,7.6,7.6,73,0.00,,SKC,0.00,VWS V13.01,2013-04-30 14:31:00,
2013-04-30 09:32:00,78.4,69.5,29.80,ESE,122,4.0,8.3,74,0.00,,SKC,0.00,VWS V13.01,2013-04-30 14:32:00,
2013-04-30 09:33:00,78.4,69.5,29.80,SSW,198,3.1,3.1,74,0.00,,SKC,0.00,VWS V13.01,2013-04-30 14:33:00,
2013-04-30 09:34:00,78.3,69.3,29.80,SSE,168,3.1,6.3,74,0.00,,SKC,0.00,VWS V13.01,2013-04-30 14:34:00,
2013-04-30 09:35:00,78.3,69.3,29.80,ENE,65,4.9,6.3,74,0.00,,SKC,0.00,VWS V13.01,2013-04-30 14:35:00,
2013-04-30 09:36:00,78.1,69.5,29.80,East,92,3.1,4.9,75,0.00,,SKC,0.00,VWS V13.01,2013-04-30 14:36:00,
2013-04-30 09:37:00,78.1,69.5,29.80,ESE,108,6.3,6.3,75,0.00,,SKC,0.00,VWS V13.01,2013-04-30 14:37:00,
2013-04-30 09:38:00,78.1,69.5,29.80,SE,143,4.0,5.4,75,0.00,,SKC,0.00,VWS V13.01,2013-04-30 14:38:00,
2013-04-30 09:39:00,77.9,69.3,29.80,SSE,149,2.7,5.4,75,0.00,,SKC,0.00,VWS V13.01,2013-04-30 14:39:00,
2013-04-30 09:40:00,77.9,69.3,29.80,SSE,157,6.3,7.6,75,0.00,,SKC,0.00,VWS V13.01,2013-04-30 14:40:00,
2013-04-30 09:41:00,77.9,69.3,29.80,SE,136,5.4,8.1,75,0.00,,SKC,0.00,VWS V13.01,2013-04-30 14:41:00,
2013-04-30 09:42:00,77.9,69.3,29.80,South,175,5.8,5.8,75,0.00,,SKC,0.00,VWS V13.01,2013-04-30 14:42:00,
2013-04-30 09:43:00,77.9,68.9,29.80,SSE,154,3.1,3.1,74,0.00,,SKC,0.00,VWS V13.01,2013-04-30 14:43:00,
2013-04-30 09:44:00,77.9,68.9,29.80,South,187,3.1,4.9,74,0.00,,SKC,0.00,VWS V13.01,2013-04-30 14:44:00,
2013-04-30 09:45:00,77.9,69.3,29.80,SSE,148,4.0,4.0,75,0.00,,SKC,0.00,VWS V13.01,2013-04-30 14:45:00,
2013-04-30 09:46:00,78.1,69.5,29.80,SE,142,3.1,4.9,75,0.00,,SKC,0.00,VWS V13.01,2013-04-30 14:46:00,
2013-04-30 09:47:00,78.3,69.7,29.80,SE,139,3.6,5.8,75,0.00,,SKC,0.00,VWS V13.01,2013-04-30 14:47:00,
2013-04-30 09:48:00,78.4,69.5,29.80,SSE,153,3.1,5.8,74,0.00,,SKC,0.00,VWS V13.01,2013-04-30 14:48:00,
2013-04-30 09:49:00,78.4,69.9,29.80,SSE,161,3.1,3.1,75,0.00,,SKC,0.00,VWS V13.01,2013-04-30 14:49:00,
2013-04-30 09:50:00,78.6,69.6,29.80,ESE,102,2.7,3.6,74,0.00,,SKC,0.00,VWS V13.01,2013-04-30 14:50:00,
2013-04-30 09:51:00,78.8,69.4,29.80,ESE,109,4.9,6.3,73,0.00,,SKC,0.00,VWS V13.01,2013-04-30 14:51:00,
2013-04-30 09:52:00,78.8,69.4,29.80,SSE,148,5.8,6.3,73,0.00,,SKC,0.00,VWS V13.01,2013-04-30 14:52:00,
2013-04-30 09:53:00,79.0,69.6,29.80,SSE,162,6.7,7.6,73,0.00,,SKC,0.00,VWS V13.01,2013-04-30 14:53:00,
2013-04-30 09:54:00,79.0,69.2,29.80,SE,131,5.8,7.6,72,0.00,,SKC,0.00,VWS V13.01,2013-04-30 14:54:00,
2013-04-30 09:55:00,79.2,69.4,29.80,SE,130,5.4,5.8,72,0.00,,SKC,0.00,VWS V13.01,2013-04-30 14:55:00,
2013-04-30 09:56:00,79.5,69.7,29.80,SE,128,3.1,6.3,72,0.00,,SKC,0.00,VWS V13.01,2013-04-30 14:56:00,
2013-04-30 09:57:00,79.5,70.1,29.80,SE,144,5.4,8.1,73,0.00,,SKC,0.00,VWS V13.01,2013-04-30 14:57:00,
2013-04-30 09:58:00,79.5,68.5,29.80,SE,145,5.8,7.2,69,0.00,,SKC,0.00,VWS V13.01,2013-04-30 14:58:00,
2013-04-30 09:59:00,79.5,67.6,29.80,SSW,193,3.6,5.8,67,0.00,,SKC,0.00,VWS V13.01,2013-04-30 14:59:00,
2013-04-30 10:00:00,79.7,68.2,29.80,SE,138,7.6,7.6,68,0.00,,SKC,0.00,VWS V13.01,2013-04-30 15:00:00,
2013-04-30 10:01:00,79.9,68.8,29.80,SSE,152,8.1,8.1,69,0.00,,SKC,0.00,VWS V13.01,2013-04-30 15:01:00,
2013-04-30 10:02:00,79.9,69.2,29.80,ESE,106,4.0,8.1,70,0.00,,SKC,0.00,VWS V13.01,2013-04-30 15:02:00,
2013-04-30 10:03:00,80.1,69.0,29.80,South,186,5.4,5.4,69,0.00,,SKC,0.00,VWS V13.01,2013-04-30 15:03:00,
2013-04-30 10:04:00,80.1,69.4,29.80,SE,139,5.8,8.1,70,0.00,,SKC,0.00,VWS V13.01,2013-04-30 15:04:00,
2013-04-30 10:05:00,80.1,68.6,29.80,ESE,117,7.6,7.6,68,0.00,,SKC,0.00,VWS V13.01,2013-04-30 15:05:00,
2013-04-30 10:06:00,80.2,69.2,29.80,ESE,122,6.3,7.6,69,0.00,,SKC,0.00,VWS V13.01,2013-04-30 15:06:00,
2013-04-30 10:07:00,80.4,68.9,29.80,SSE,156,6.3,8.3,68,0.00,,SKC,0.00,VWS V13.01,2013-04-30 15:07:00,
2013-04-30 10:08:00,80.2,68.3,29.80,ESE,115,6.7,6.7,67,0.00,,SKC,0.00,VWS V13.01,2013-04-30 15:08:00,
2013-04-30 10:09:00,80.4,68.5,29.80,SE,145,4.0,8.1,67,0.00,,SKC,0.00,VWS V13.01,2013-04-30 15:09:00,
2013-04-30 10:10:00,80.4,68.5,29.80,SSW,193,3.6,6.3,67,0.00,,SKC,0.00,VWS V13.01,2013-04-30 15:10:00,
2013-04-30 10:11:00,80.4,69.3,29.80,ESE,105,6.3,6.3,69,0.00,,SKC,0.00,VWS V13.01,2013-04-30 15:11:00,
2013-04-30 10:12:00,80.6,69.1,29.80,SSE,152,4.9,6.3,68,0.00,,SKC,0.00,VWS V13.01,2013-04-30 15:12:00,
2013-04-30 10:13:00,80.6,68.6,29.80,SE,145,5.8,8.1,67,0.00,,SKC,0.00,VWS V13.01,2013-04-30 15:13:00,
2013-04-30 10:14:00,80.6,68.2,29.80,South,187,2.7,6.3,66,0.00,,SKC,0.00,VWS V13.01,2013-04-30 15:14:00,
2013-04-30 10:15:00,80.8,68.4,29.80,SE,138,3.6,8.3,66,0.00,,SKC,0.00,VWS V13.01,2013-04-30 15:15:00,
2013-04-30 10:16:00,80.8,68.4,29.80,South,174,5.4,8.1,66,0.00,,SKC,0.00,VWS V13.01,2013-04-30 15:16:00,
2013-04-30 10:17:00,80.8,69.2,29.80,ESE,104,5.8,5.8,68,0.00,,SKC,0.00,VWS V13.01,2013-04-30 15:17:00,
2013-04-30 10:18:00,80.8,68.8,29.80,SE,142,3.1,12.3,67,0.00,,SKC,0.00,VWS V13.01,2013-04-30 15:18:00,
2013-04-30 10:19:00,80.6,68.6,29.80,SSE,160,5.8,8.7,67,0.00,,SKC,0.00,VWS V13.01,2013-04-30 15:19:00,
2013-04-30 10:20:00,80.6,68.2,29.80,SE,127,3.6,5.8,66,0.00,,SKC,0.00,VWS V13.01,2013-04-30 15:20:00,
2013-04-30 10:21:00,80.6,68.6,29.80,South,189,2.7,8.1,67,0.00,,SKC,0.00,VWS V13.01,2013-04-30 15:21:00,
2013-04-30 10:22:00,80.4,68.5,29.80,SE,135,6.3,8.1,67,0.00,,SKC,0.00,VWS V13.01,2013-04-30 15:22:00,
2013-04-30 10:23:00,80.2,67.9,29.80,East,98,7.6,10.1,66,0.00,,SKC,0.00,VWS V13.01,2013-04-30 15:23:00,
2013-04-30 10:24:00,80.2,68.3,29.80,SSE,150,2.7,4.0,67,0.00,,SKC,0.00,VWS V13.01,2013-04-30 15:24:00,
2013-04-30 10:25:00,80.1,68.6,29.80,East,88,5.4,5.4,68,0.00,,SKC,0.00,VWS V13.01,2013-04-30 15:25:00,
2013-04-30 10:26:00,80.1,68.6,29.80,ESE,114,5.4,6.3,68,0.00,,SKC,0.00,VWS V13.01,2013-04-30 15:26:00,
2013-04-30 10:27:00,80.1,69.0,29.80,East,92,8.1,12.3,69,0.00,,SKC,0.00,VWS V13.01,2013-04-30 15:27:00,
2013-04-30 10:28:00,80.1,68.1,29.80,ESE,117,5.4,10.5,67,0.00,,SKC,0.00,VWS V13.01,2013-04-30 15:28:00,
2013-04-30 10:29:00,79.9,67.9,29.80,South,170,8.1,8.3,67,0.00,,SKC,0.00,VWS V13.01,2013-04-30 15:29:00,
2013-04-30 10:30:00,80.1,68.6,29.80,SE,132,9.2,9.2,68,0.00,,SKC,0.00,VWS V13.01,2013-04-30 15:30:00,
2013-04-30 10:31:00,80.1,68.1,29.80,SE,141,4.0,9.2,67,0.00,,SKC,0.00,VWS V13.01,2013-04-30 15:31:00,
2013-04-30 10:32:00,79.9,68.4,29.80,South,171,4.0,4.0,68,0.00,,SKC,0.00,VWS V13.01,2013-04-30 15:32:00,
2013-04-30 10:33:00,79.9,68.8,29.80,SE,142,3.1,4.9,69,0.00,,SKC,0.00,VWS V13.01,2013-04-30 15:33:00,
2013-04-30 10:34:00,79.9,68.4,29.80,SE,125,8.3,10.5,68,0.00,,SKC,0.00,VWS V13.01,2013-04-30 15:34:00,
2013-04-30 10:35:00,79.9,67.9,29.80,SW,223,3.1,8.3,67,0.00,,SKC,0.00,VWS V13.01,2013-04-30 15:35:00,
2013-04-30 10:36:00,79.9,67.9,29.80,SE,127,3.6,5.4,67,0.00,,SKC,0.00,VWS V13.01,2013-04-30 15:36:00,
2013-04-30 10:37:00,79.9,68.8,29.80,South,185,4.5,6.3,69,0.00,,SKC,0.00,VWS V13.01,2013-04-30 15:37:00,
2013-04-30 10:38:00,79.9,68.4,29.80,ESE,119,6.3,6.3,68,0.00,,SKC,0.00,VWS V13.01,2013-04-30 15:38:00,
2013-04-30 10:39:00,80.1,68.6,29.80,ESE,115,5.4,7.2,68,0.00,,SKC,0.00,VWS V13.01,2013-04-30 15:39:00,
2013-04-30 10:40:00,80.1,68.1,29.80,East,99,5.8,9.2,67,0.00,,SKC,0.00,VWS V13.01,2013-04-30 15:40:00,
2013-04-30 10:41:00,80.2,68.7,29.80,South,185,4.0,8.3,68,0.00,,SKC,0.00,VWS V13.01,2013-04-30 15:41:00,
2013-04-30 10:42:00,80.2,68.3,29.80,ESE,109,7.6,8.7,67,0.00,,SKC,0.00,VWS V13.01,2013-04-30 15:42:00,
2013-04-30 10:43:00,80.2,68.3,29.80,ESE,111,7.6,7.6,67,0.00,,SKC,0.00,VWS V13.01,2013-04-30 15:43:00,
2013-04-30 10:44:00,80.2,68.3,29.80,ESE,119,8.7,8.7,67,0.00,,SKC,0.00,VWS V13.01,2013-04-30 15:44:00,
2013-04-30 10:45:00,80.2,68.3,29.80,East,96,5.4,8.7,67,0.00,,SKC,0.00,VWS V13.01,2013-04-30 15:45:00,
2013-04-30 10:46:00,80.2,68.3,29.80,ESE,111,5.8,6.3,67,0.00,,SKC,0.00,VWS V13.01,2013-04-30 15:46:00,
2013-04-30 10:47:00,80.2,68.3,29.80,SSW,204,3.6,10.1,67,0.00,,SKC,0.00,VWS V13.01,2013-04-30 15:47:00,
2013-04-30 10:48:00,80.2,68.3,29.80,ESE,120,5.8,6.3,67,0.00,,SKC,0.00,VWS V13.01,2013-04-30 15:48:00,
2013-04-30 10:49:00,80.2,68.3,29.80,SE,126,4.9,5.8,67,0.00,,SKC,0.00,VWS V13.01,2013-04-30 15:49:00,
2013-04-30 10:50:00,80.2,68.3,29.80,ESE,105,6.3,6.3,67,0.00,,SKC,0.00,VWS V13.01,2013-04-30 15:50:00,
2013-04-30 10:51:00,80.2,69.2,29.80,SSE,149,3.1,6.3,69,0.00,,SKC,0.00,VWS V13.01,2013-04-30 15:51:00,
2013-04-30 10:52:00,80.1,69.0,29.80,ESE,116,5.8,6.3,69,0.00,,SKC,0.00,VWS V13.01,2013-04-30 15:52:00,
2013-04-30 10:53:00,80.2,69.6,29.80,SSW,197,8.1,8.1,70,0.00,,SKC,0.00,VWS V13.01,2013-04-30 15:53:00,
2013-04-30 10:54:00,80.2,69.6,29.80,SSW,194,5.8,5.8,70,0.00,,SKC,0.00,VWS V13.01,2013-04-30 15:54:00,
2013-04-30 10:55:00,80.2,69.6,29.80,SE,144,6.3,6.3,70,0.00,,SKC,0.00,VWS V13.01,2013-04-30 15:55:00,
2013-04-30 10:56:00,80.4,69.3,29.80,SSE,161,5.8,10.1,69,0.00,,SKC,0.00,VWS V13.01,2013-04-30 15:56:00,
2013-04-30 10:57:00,80.2,68.3,29.80,SSW,208,8.3,8.3,67,0.00,,SKC,0.00,VWS V13.01,2013-04-30 15:57:00,
2013-04-30 10:58:00,80.4,68.5,29.80,SE,136,5.8,8.3,67,0.00,,SKC,0.00,VWS V13.01,2013-04-30 15:58:00,
2013-04-30 10:59:00,80.4,68.9,29.80,East,100,2.2,5.8,68,0.00,,SKC,0.00,VWS V13.01,2013-04-30 15:59:00,
2013-04-30 11:00:00,80.4,69.3,29.80,ESE,116,5.8,6.3,69,0.00,,SKC,0.00,VWS V13.01,2013-04-30 16:00:00,
2013-04-30 11:01:00,80.2,69.2,29.80,ESE,111,11.0,11.0,69,0.00,,SKC,0.00,VWS V13.01,2013-04-30 16:01:00,
2013-04-30 11:02:00,80.1,69.4,29.80,SSE,152,5.8,11.0,70,0.00,,SKC,0.00,VWS V13.01,2013-04-30 16:02:00,
2013-04-30 11:03:00,80.1,69.8,29.80,South,191,7.6,7.6,71,0.00,,SKC,0.00,VWS V13.01,2013-04-30 16:03:00,
2013-04-30 11:04:00,79.9,68.8,29.80,SSE,153,11.0,11.0,69,0.00,,SKC,0.00,VWS V13.01,2013-04-30 16:04:00,
2013-04-30 11:05:00,79.9,68.8,29.80,SSE,163,6.3,11.0,69,0.00,,SKC,0.00,VWS V13.01,2013-04-30 16:05:00,
2013-04-30 11:06:00,79.9,69.2,29.80,SSW,197,5.8,7.6,70,0.00,,SKC,0.00,VWS V13.01,2013-04-30 16:06:00,
2013-04-30 11:07:00,79.9,69.2,29.80,SE,131,4.0,7.6,70,0.00,,SKC,0.00,VWS V13.01,2013-04-30 16:07:00,
2013-04-30 11:08:00,79.9,69.6,29.80,East,79,2.7,4.0,71,0.00,,SKC,0.00,VWS V13.01,2013-04-30 16:08:00,
2013-04-30 11:09:00,79.7,69.5,29.80,South,190,4.0,6.3,71,0.00,,SKC,0.00,VWS V13.01,2013-04-30 16:09:00,
2013-04-30 11:10:00,79.9,70.9,29.80,SE,139,8.1,8.1,74,0.00,,SKC,0.00,VWS V13.01,2013-04-30 16:10:00,
2013-04-30 11:11:00,79.9,70.5,29.80,SSE,163,4.9,8.1,73,0.00,,SKC,0.00,VWS V13.01,2013-04-30 16:11:00,
2013-04-30 11:12:00,79.7,69.5,29.80,SE,132,5.8,8.3,71,0.00,,SKC,0.00,VWS V13.01,2013-04-30 16:12:00,
2013-04-30 11:13:00,79.7,69.5,29.80,SE,135,5.8,8.3,71,0.00,,SKC,0.00,VWS V13.01,2013-04-30 16:13:00,
2013-04-30 11:14:00,79.7,69.5,29.80,South,187,5.8,7.6,71,0.00,,SKC,0.00,VWS V13.01,2013-04-30 16:14:00,
2013-04-30 11:15:00,79.7,69.9,29.80,South,184,5.8,8.7,72,0.00,,SKC,0.00,VWS V13.01,2013-04-30 16:15:00,
2013-04-30 11:16:00,79.7,70.3,29.80,South,188,8.3,8.3,73,0.00,,SKC,0.00,VWS V13.01,2013-04-30 16:16:00,
2013-04-30 11:17:00,79.7,70.3,29.80,SE,140,4.9,6.3,73,0.00,,SKC,0.00,VWS V13.01,2013-04-30 16:17:00,
2013-04-30 11:18:00,79.7,70.3,29.80,SSE,149,5.4,6.3,73,0.00,,SKC,0.00,VWS V13.01,2013-04-30 16:18:00,
2013-04-30 11:19:00,79.7,70.7,29.83,SE,141,8.7,8.7,74,0.00,,SKC,0.00,VWS V13.01,2013-04-30 16:19:00,
2013-04-30 11:20:00,79.5,69.3,29.83,South,179,8.3,11.0,71,0.00,,SKC,0.00,VWS V13.01,2013-04-30 16:20:00,
2013-04-30 11:21:00,79.7,70.7,29.83,SE,144,7.6,8.3,74,0.00,,SKC,0.00,VWS V13.01,2013-04-30 16:21:00,
2013-04-30 11:22:00,79.5,70.1,29.83,SE,125,10.5,10.5,73,0.00,,SKC,0.00,VWS V13.01,2013-04-30 16:22:00,
2013-04-30 11:23:00,79.5,69.7,29.83,South,174,6.3,10.5,72,0.00,,SKC,0.00,VWS V13.01,2013-04-30 16:23:00,
2013-04-30 11:24:00,79.5,69.3,29.83,ESE,115,5.4,7.6,71,0.00,,SKC,0.00,VWS V13.01,2013-04-30 16:24:00,
2013-04-30 11:25:00,79.5,69.7,29.83,SSE,167,6.3,7.6,72,0.00,,SKC,0.00,VWS V13.01,2013-04-30 16:25:00,
2013-04-30 11:26:00,79.5,70.5,29.83,SE,130,5.8,6.3,74,0.00,,SKC,0.00,VWS V13.01,2013-04-30 16:26:00,
2013-04-30 11:27:00,79.3,70.3,29.83,ESE,102,10.5,10.5,74,0.00,,SKC,0.00,VWS V13.01,2013-04-30 16:27:00,
2013-04-30 11:28:00,79.3,69.9,29.83,ESE,114,8.3,10.5,73,0.00,,SKC,0.00,VWS V13.01,2013-04-30 16:28:00,
2013-04-30 11:29:00,79.3,70.3,29.83,SSE,168,5.4,8.3,74,0.00,,SKC,0.00,VWS V13.01,2013-04-30 16:29:00,
2013-04-30 11:30:00,79.2,69.8,29.83,East,87,5.8,8.1,73,0.00,,SKC,0.00,VWS V13.01,2013-04-30 16:30:00,
2013-04-30 11:31:00,79.2,70.2,29.83,SE,145,8.3,9.6,74,0.00,,SKC,0.00,VWS V13.01,2013-04-30 16:31:00,
2013-04-30 11:32:00,79.2,69.8,29.83,South,183,8.1,10.5,73,0.00,,SKC,0.00,VWS V13.01,2013-04-30 16:32:00,
2013-04-30 11:33:00,79.2,69.4,29.83,SE,145,6.3,10.5,72,0.00,,SKC,0.00,VWS V13.01,2013-04-30 16:33:00,
2013-04-30 11:34:00,79.2,69.8,29.83,SE,133,6.3,8.1,73,0.00,,SKC,0.00,VWS V13.01,2013-04-30 16:34:00,
2013-04-30 11:35:00,79.3,70.3,29.83,South,181,3.1,6.3,74,0.00,,SKC,0.00,VWS V13.01,2013-04-30 16:35:00,
2013-04-30 11:36:00,79.3,69.1,29.83,SSE,160,5.4,10.5,71,0.00,,SKC,0.00,VWS V13.01,2013-04-30 16:36:00,
2013-04-30 11:37:00,79.5,69.3,29.83,South,176,10.5,10.5,71,0.00,,SKC,0.00,VWS V13.01,2013-04-30 16:37:00,
2013-04-30 11:38:00,79.5,69.3,29.83,South,170,10.1,10.5,71,0.00,,SKC,0.00,VWS V13.01,2013-04-30 16:38:00,
2013-04-30 11:39:00,79.7,69.5,29.83,ESE,119,5.8,11.4,71,0.00,,SKC,0.00,VWS V13.01,2013-04-30 16:39:00,
2013-04-30 11:40:00,79.9,70.1,29.83,SSW,196,8.7,12.8,72,0.00,,SKC,0.00,VWS V13.01,2013-04-30 16:40:00,
2013-04-30 11:41:00,80.2,70.0,29.83,SSE,161,5.8,11.9,71,0.00,,SKC,0.00,VWS V13.01,2013-04-30 16:41:00,
2013-04-30 11:42:00,80.4,71.0,29.83,ESE,112,3.6,8.7,73,0.00,,SKC,0.00,VWS V13.01,2013-04-30 16:42:00,
2013-04-30 11:43:00,80.4,71.0,29.83,SE,130,9.2,9.2,73,0.00,,SKC,0.00,VWS V13.01,2013-04-30 16:43:00,
2013-04-30 11:44:00,80.6,69.9,29.83,SSW,192,6.3,10.1,70,0.00,,SKC,0.00,VWS V13.01,2013-04-30 16:44:00,
2013-04-30 11:45:00,80.8,70.1,29.83,SSW,201,4.0,6.3,70,0.00,,SKC,0.00,VWS V13.01,2013-04-30 16:45:00,
2013-04-30 11:46:00,81.0,70.3,29.83,South,180,8.1,8.1,70,0.00,,SKC,0.00,VWS V13.01,2013-04-30 16:46:00,
2013-04-30 11:47:00,81.0,69.8,29.83,SSE,150,9.6,11.0,69,0.00,,SKC,0.00,VWS V13.01,2013-04-30 16:47:00,
2013-04-30 11:48:00,81.0,69.8,29.83,SE,134,6.3,11.0,69,0.00,,SKC,0.00,VWS V13.01,2013-04-30 16:48:00,
2013-04-30 11:49:00,81.1,69.6,29.80,SE,126,8.3,8.7,68,0.00,,SKC,0.00,VWS V13.01,2013-04-30 16:49:00,
2013-04-30 11:50:00,81.1,69.2,29.80,East,101,4.9,8.7,67,0.00,,SKC,0.00,VWS V13.01,2013-04-30 16:50:00,
2013-04-30 11:51:00,81.3,69.3,29.80,SE,128,8.7,8.7,67,0.00,,SKC,0.00,VWS V13.01,2013-04-30 16:51:00,
2013-04-30 11:52:00,81.5,69.5,29.80,ESE,108,11.0,11.0,67,0.00,,SKC,0.00,VWS V13.01,2013-04-30 16:52:00,
2013-04-30 11:53:00,81.5,69.5,29.80,South,183,4.9,11.0,67,0.00,,SKC,0.00,VWS V13.01,2013-04-30 16:53:00,
2013-04-30 11:54:00,81.5,69.9,29.80,SE,131,6.3,6.3,68,0.00,,SKC,0.00,VWS V13.01,2013-04-30 16:54:00,
2013-04-30 11:55:00,81.5,69.5,29.80,SSW,198,5.4,6.3,67,0.00,,SKC,0.00,VWS V13.01,2013-04-30 16:55:00,
2013-04-30 11:56:00,81.5,69.1,29.80,ESE,102,11.0,11.4,66,0.00,,SKC,0.00,VWS V13.01,2013-04-30 16:56:00,
2013-04-30 11:57:00,81.3,68.9,29.80,ESE,109,8.3,11.0,66,0.00,,SKC,0.00,VWS V13.01,2013-04-30 16:57:00,
2013-04-30 11:58:00,81.3,68.9,29.80,SE,144,5.8,11.0,66,0.00,,SKC,0.00,VWS V13.01,2013-04-30 16:58:00,
2013-04-30 11:59:00,81.1,69.2,29.80,SSE,160,8.1,8.1,67,0.00,,SKC,0.00,VWS V13.01,2013-04-30 16:59:00,
2013-04-30 12:00:00,81.0,68.5,29.80,SSE,148,8.3,8.7,66,0.00,,SKC,0.00,VWS V13.01,2013-04-30 17:00:00,
2013-04-30 12:01:00,81.0,69.0,29.80,ESE,110,8.3,8.3,67,0.00,,SKC,0.00,VWS V13.01,2013-04-30 17:01:00,
2013-04-30 12:02:00,80.6,69.1,29.80,SSE,166,6.7,8.1,68,0.00,,SKC,0.00,VWS V13.01,2013-04-30 17:02:00,
2013-04-30 12:03:00,80.6,69.1,29.80,SSE,167,8.7,8.7,68,0.00,,SKC,0.00,VWS V13.01,2013-04-30 17:03:00,
2013-04-30 12:04:00,80.6,69.5,29.80,SE,129,5.4,8.7,69,0.00,,SKC,0.00,VWS V13.01,2013-04-30 17:04:00,
2013-04-30 12:05:00,80.4,68.9,29.80,SE,126,5.4,6.3,68,0.00,,SKC,0.00,VWS V13.01,2013-04-30 17:05:00,
2013-04-30 12:06:00,80.4,69.3,29.80,ESE,104,8.7,8.7,69,0.00,,SKC,0.00,VWS V13.01,2013-04-30 17:06:00,
2013-04-30 12:07:00,80.4,70.2,29.80,ESE,120,3.1,4.9,71,0.00,,SKC,0.00,VWS V13.01,2013-04-30 17:07:00,
2013-04-30 12:08:00,80.2,70.0,29.80,ESE,109,4.0,4.9,71,0.00,,SKC,0.00,VWS V13.01,2013-04-30 17:08:00,
2013-04-30 12:09:00,80.2,69.6,29.80,ESE,102,8.3,8.3,70,0.00,,SKC,0.00,VWS V13.01,2013-04-30 17:09:00,
2013-04-30 12:10:00,80.1,69.8,29.80,ESE,117,2.7,8.3,71,0.00,,SKC,0.00,VWS V13.01,2013-04-30 17:10:00,
2013-04-30 12:11:00,80.1,69.8,29.80,East,99,6.3,8.7,71,0.00,,SKC,0.00,VWS V13.01,2013-04-30 17:11:00,
2013-04-30 12:12:00,79.7,69.1,29.80,South,183,10.5,10.5,70,0.00,,SKC,0.00,VWS V13.01,2013-04-30 17:12:00,
2013-04-30 12:13:00,79.7,69.1,29.80,East,90,8.1,10.5,70,0.00,,SKC,0.00,VWS V13.01,2013-04-30 17:13:00,
2013-04-30 12:14:00,79.5,68.9,29.80,ESE,119,5.4,8.3,70,0.00,,SKC,0.00,VWS V13.01,2013-04-30 17:14:00,
2013-04-30 12:15:00,79.3,68.7,29.80,South,179,5.8,7.2,70,0.00,,SKC,0.00,VWS V13.01,2013-04-30 17:15:00,
2013-04-30 12:16:00,79.2,69.0,29.80,ESE,114,5.4,5.8,71,0.00,,SKC,0.00,VWS V13.01,2013-04-30 17:16:00,
2013-04-30 12:17:00,79.2,69.4,29.80,SE,134,6.3,6.3,72,0.00,,SKC,0.00,VWS V13.01,2013-04-30 17:17:00,
2013-04-30 12:18:00,79.0,69.2,29.80,SW,220,7.6,7.6,72,0.00,,SKC,0.00,VWS V13.01,2013-04-30 17:18:00,
2013-04-30 12:19:00,79.0,69.6,29.80,ESE,120,6.3,8.7,73,0.00,,SKC,0.00,VWS V13.01,2013-04-30 17:19:00,
2013-04-30 12:20:00,79.0,69.2,29.80,South,180,7.6,8.7,72,0.00,,SKC,0.00,VWS V13.01,2013-04-30 17:20:00,
2013-04-30 12:21:00,79.0,70.0,29.80,SE,127,9.6,9.6,74,0.00,,SKC,0.00,VWS V13.01,2013-04-30 17:21:00,
2013-04-30 12:22:00,79.0,69.2,29.80,SSW,205,4.9,8.1,72,0.00,,SKC,0.00,VWS V13.01,2013-04-30 17:22:00,
2013-04-30 12:23:00,79.0,69.2,29.80,SE,136,3.6,8.1,72,0.00,,SKC,0.00,VWS V13.01,2013-04-30 17:23:00,
2013-04-30 12:24:00,79.0,70.0,29.80,ESE,110,8.1,8.1,74,0.00,,SKC,0.00,VWS V13.01,2013-04-30 17:24:00,
2013-04-30 12:25:00,78.8,69.4,29.80,SSE,163,3.6,10.1,73,0.00,,SKC,0.00,VWS V13.01,2013-04-30 17:25:00,
2013-04-30 12:26:00,78.8,69.8,29.80,SSW,197,8.3,8.3,74,0.00,,SKC,0.00,VWS V13.01,2013-04-30 17:26:00,
2013-04-30 12:27:00,79.0,70.0,29.80,SSE,153,4.0,5.8,74,0.00,,SKC,0.00,VWS V13.01,2013-04-30 17:27:00,
2013-04-30 12:28:00,79.0,70.0,29.80,SSE,153,4.0,5.8,74,0.00,,SKC,0.00,VWS V13.01,2013-04-30 17:28:00,
2013-04-30 12:29:00,79.0,70.0,29.80,SE,129,3.6,10.1,74,0.00,,SKC,0.00,VWS V13.01,2013-04-30 17:29:00,
2013-04-30 12:30:00,79.0,70.0,29.80,SSE,158,8.7,8.7,74,0.00,,SKC,0.00,VWS V13.01,2013-04-30 17:30:00,
2013-04-30 12:31:00,79.2,70.2,29.80,SE,125,5.8,8.7,74,0.00,,SKC,0.00,VWS V13.01,2013-04-30 17:31:00,
2013-04-30 12:32:00,79.3,70.3,29.80,South,190,8.1,8.1,74,0.00,,SKC,0.00,VWS V13.01,2013-04-30 17:32:00,
2013-04-30 12:33:00,79.3,70.3,29.80,East,79,5.8,8.1,74,0.00,,SKC,0.00,VWS V13.01,2013-04-30 17:33:00,
2013-04-30 12:34:00,79.5,70.5,29.80,SSE,158,10.5,10.5,74,0.00,,SKC,0.00,VWS V13.01,2013-04-30 17:34:00,
2013-04-30 12:35:00,79.5,70.5,29.80,South,176,4.0,10.5,74,0.00,,SKC,0.00,VWS V13.01,2013-04-30 17:35:00,
2013-04-30 12:36:00,79.5,69.7,29.80,SE,130,7.2,7.6,72,0.00,,SKC,0.00,VWS V13.01,2013-04-30 17:36:00,
2013-04-30 12:37:00,79.3,69.1,29.80,SSE,154,9.6,9.6,71,0.00,,SKC,0.00,VWS V13.01,2013-04-30 17:37:00,
2013-04-30 12:46:00,79.2,70.6,29.80,SSE,159,5.8,5.8,75,0.00,,SKC,0.00,VWS V13.01,2013-04-30 17:46:00,
2013-04-30 12:51:00,78.8,69.8,29.80,SE,133,3.1,4.0,74,0.00,,SKC,0.00,VWS V13.01,2013-04-30 17:51:00,
2013-04-30 12:56:00,79.0,70.0,29.80,East,101,6.7,6.7,74,0.00,,SKC,0.00,VWS V13.01,2013-04-30 17:56:00,
2013-04-30 13:01:00,79.3,70.7,29.80,SSE,150,10.1,10.1,75,0.00,,SKC,0.00,VWS V13.01,2013-04-30 18:01:00,
2013-04-30 13:06:00,79.5,70.5,29.80,SSE,151,6.3,7.6,74,0.00,,SKC,0.00,VWS V13.01,2013-04-30 18:06:00,
2013-04-30 13:11:00,79.5,70.5,29.80,SSE,147,6.3,6.3,74,0.00,,SKC,0.00,VWS V13.01,2013-04-30 18:11:00,
2013-04-30 13:16:00,79.7,70.7,29.80,SSE,164,5.4,5.8,74,0.00,,SKC,0.00,VWS V13.01,2013-04-30 18:16:00,
2013-04-30 13:21:00,79.7,70.7,29.80,South,171,2.2,3.1,74,0.00,,SKC,0.00,VWS V13.01,2013-04-30 18:21:00,
2013-04-30 13:26:00,79.3,70.3,29.80,SE,129,8.3,8.3,74,0.00,,SKC,0.00,VWS V13.01,2013-04-30 18:26:00,
2013-04-30 13:31:00,79.2,70.2,29.80,South,177,5.8,6.3,74,0.00,,SKC,0.00,VWS V13.01,2013-04-30 18:31:00,
2013-04-30 13:36:00,78.8,69.8,29.80,SE,140,10.1,10.1,74,0.00,,SKC,0.00,VWS V13.01,2013-04-30 18:36:00,
2013-04-30 13:41:00,78.3,69.7,29.80,South,181,8.1,8.7,75,0.00,,SKC,0.00,VWS V13.01,2013-04-30 18:41:00,
2013-04-30 13:46:00,78.3,70.1,29.80,ESE,114,3.6,3.6,76,0.00,,SKC,0.00,VWS V13.01,2013-04-30 18:46:00,
2013-04-30 13:51:00,78.4,69.9,29.77,SSE,149,7.2,7.6,75,0.00,,SKC,0.00,VWS V13.01,2013-04-30 18:51:00,
2013-04-30 13:56:00,78.3,69.7,29.77,South,183,3.1,3.1,75,0.00,,SKC,0.00,VWS V13.01,2013-04-30 18:56:00,
2013-04-30 14:01:00,78.1,69.9,29.77,SE,146,3.6,10.1,76,0.00,,SKC,0.00,VWS V13.01,2013-04-30 19:01:00,
2013-04-30 14:06:00,78.1,69.9,29.77,SSE,165,4.0,8.3,76,0.00,,SKC,0.00,VWS V13.01,2013-04-30 19:06:00,
2013-04-30 14:11:00,77.7,69.9,29.77,South,169,6.3,6.3,77,0.00,,SKC,0.00,VWS V13.01,2013-04-30 19:11:00,
2013-04-30 14:16:00,77.5,69.4,29.77,ESE,119,6.3,6.3,76,0.00,,SKC,0.00,VWS V13.01,2013-04-30 19:16:00,
2013-04-30 14:21:00,77.2,69.4,29.77,SE,136,6.3,11.4,77,0.00,,SKC,0.00,VWS V13.01,2013-04-30 19:21:00,
2013-04-30 14:26:00,76.8,69.4,29.77,SSE,151,6.3,6.3,78,0.00,,SKC,0.00,VWS V13.01,2013-04-30 19:26:00,
2013-04-30 14:31:00,76.5,69.8,29.77,SE,138,4.0,4.0,80,0.00,,SKC,0.00,VWS V13.01,2013-04-30 19:31:00,
2013-04-30 14:36:00,76.6,70.0,29.77,ESE,122,3.6,5.4,80,0.00,,SKC,0.00,VWS V13.01,2013-04-30 19:36:00,
2013-04-30 14:41:00,76.6,70.0,29.77,South,186,3.6,3.6,80,0.00,,SKC,0.00,VWS V13.01,2013-04-30 19:41:00,
2013-04-30 14:46:00,76.6,70.0,29.77,SSW,196,5.8,5.8,80,0.00,,SKC,0.00,VWS V13.01,2013-04-30 19:46:00,
2013-04-30 14:51:00,76.6,70.4,29.77,SE,131,6.3,8.1,81,0.00,,SKC,0.00,VWS V13.01,2013-04-30 19:51:00,
2013-04-30 14:56:00,76.6,70.4,29.77,ESE,114,5.8,8.7,81,0.00,,SKC,0.00,VWS V13.01,2013-04-30 19:56:00,
2013-04-30 15:01:00,76.5,70.2,29.77,SE,130,6.3,7.6,81,0.00,,SKC,0.00,VWS V13.01,2013-04-30 20:01:00,
2013-04-30 15:06:00,76.5,70.6,29.77,SSE,162,4.0,5.8,82,0.00,,SKC,0.00,VWS V13.01,2013-04-30 20:06:00,
2013-04-30 15:11:00,76.5,70.9,29.77,SSE,149,5.4,6.3,83,0.00,,SKC,0.00,VWS V13.01,2013-04-30 20:11:00,
2013-04-30 15:16:00,76.5,70.6,29.77,ESE,120,4.9,10.5,82,0.00,,SKC,0.00,VWS V13.01,2013-04-30 20:16:00,
2013-04-30 15:21:00,76.3,70.7,29.77,SE,138,7.2,10.1,83,0.00,,SKC,0.00,VWS V13.01,2013-04-30 20:21:00,
2013-04-30 15:26:00,76.3,71.1,29.77,SSE,157,4.9,8.1,84,0.00,,SKC,0.00,VWS V13.01,2013-04-30 20:26:00,
2013-04-30 15:31:00,76.3,71.1,29.77,SE,135,5.8,8.7,84,0.00,,SKC,0.00,VWS V13.01,2013-04-30 20:31:00,
2013-04-30 15:36:00,76.3,71.1,29.74,South,185,4.0,5.4,84,0.00,,SKC,0.00,VWS V13.01,2013-04-30 20:36:00,
2013-04-30 15:41:00,76.1,71.3,29.74,SSE,157,4.0,10.5,85,0.00,,SKC,0.00,VWS V13.01,2013-04-30 20:41:00,
2013-04-30 15:46:00,75.9,71.1,29.74,SE,146,4.9,8.7,85,0.00,,SKC,0.00,VWS V13.01,2013-04-30 20:46:00,
2013-04-30 15:51:00,75.9,71.1,29.74,SE,130,5.4,8.3,85,0.00,,SKC,0.00,VWS V13.01,2013-04-30 20:51:00,
2013-04-30 15:56:00,75.9,71.1,29.74,SSE,158,5.8,5.8,85,0.00,,SKC,0.00,VWS V13.01,2013-04-30 20:56:00,
2013-04-30 16:01:00,75.9,71.4,29.74,South,175,5.8,5.8,86,0.00,,SKC,0.00,VWS V13.01,2013-04-30 21:01:00,
2013-04-30 16:06:00,75.7,70.9,29.74,SW,233,8.1,10.1,85,0.00,,SKC,0.00,VWS V13.01,2013-04-30 21:06:00,
2013-04-30 16:10:00,74.8,65.2,29.74,WSW,242,2.7,7.2,72,0.00,,SKC,0.00,VWS V13.01,2013-04-30 21:10:00,
2013-04-30 16:15:00,73.9,65.5,29.74,North,352,8.7,10.5,75,0.00,,SKC,0.00,VWS V13.01,2013-04-30 21:15:00,
2013-04-30 16:20:00,72.7,65.1,29.74,West,259,4.0,8.1,77,0.00,,SKC,0.00,VWS V13.01,2013-04-30 21:20:00,
2013-04-30 16:25:00,71.8,66.0,29.74,NNW,327,5.4,5.8,82,0.00,,SKC,0.00,VWS V13.01,2013-04-30 21:25:00,
2013-04-30 16:30:00,71.1,66.3,29.74,SSW,196,5.8,5.8,85,0.04,,SKC,0.08,VWS V13.01,2013-04-30 21:30:00,
2013-04-30 16:35:00,70.9,66.8,29.74,West,275,2.7,6.3,87,0.08,,SKC,0.08,VWS V13.01,2013-04-30 21:35:00,
2013-04-30 16:40:00,70.7,66.7,29.74,WSW,244,0.0,0.0,87,0.08,,SKC,0.08,VWS V13.01,2013-04-30 21:40:00,
2013-04-30 16:45:00,70.7,67.0,29.74,WSW,252,3.6,3.6,88,0.16,,SKC,0.16,VWS V13.01,2013-04-30 21:45:00,
2013-04-30 16:50:00,70.5,66.8,29.77,SSE,152,2.2,2.7,88,0.31,,SKC,0.31,VWS V13.01,2013-04-30 21:50:00,
2013-04-30 16:55:00,70.2,67.1,29.77,NNW,340,2.7,3.1,90,0.47,,SKC,0.47,VWS V13.01,2013-04-30 21:55:00,
2013-04-30 17:00:00,69.8,67.1,29.77,NNW,333,0.0,0.0,91,0.59,,SKC,0.63,VWS V13.01,2013-04-30 22:00:00,
2013-04-30 17:05:00,69.4,67.0,29.77,NNW,333,0.0,0.0,92,0.63,,SKC,0.63,VWS V13.01,2013-04-30 22:05:00,
2013-04-30 17:10:00,69.4,67.3,29.77,East,85,0.0,0.0,93,0.63,,SKC,0.63,VWS V13.01,2013-04-30 22:10:00,
2013-04-30 17:15:00,69.4,67.3,29.77,ENE,60,0.0,0.0,93,0.63,,SKC,0.63,VWS V13.01,2013-04-30 22:15:00,
2013-04-30 17:20:00,69.6,68.1,29.77,East,82,0.0,0.0,95,0.67,,SKC,0.67,VWS V13.01,2013-04-30 22:20:00,
2013-04-30 17:25:00,69.4,67.9,29.77,North,10,0.0,0.0,95,0.67,,SKC,0.67,VWS V13.01,2013-04-30 22:25:00,
2013-04-30 17:30:00,69.4,67.9,29.77,ENE,60,0.0,0.0,95,0.63,,SKC,0.67,VWS V13.01,2013-04-30 22:30:00,
2013-04-30 17:35:00,69.4,68.2,29.74,NE,48,2.2,3.6,96,0.59,,SKC,0.67,VWS V13.01,2013-04-30 22:35:00,
2013-04-30 17:40:00,69.4,68.6,29.74,NNE,28,3.6,3.6,97,0.59,,SKC,0.67,VWS V13.01,2013-04-30 22:40:00,
2013-04-30 17:45:00,69.4,68.2,29.74,NNE,23,3.1,3.1,96,0.55,,SKC,0.67,VWS V13.01,2013-04-30 22:45:00,
2013-04-30 17:50:00,69.1,67.6,29.74,NNE,27,4.0,4.5,95,0.43,,SKC,0.67,VWS V13.01,2013-04-30 22:50:00,
2013-04-30 17:55:00,69.1,68.5,29.74,East,90,0.0,2.7,98,0.24,,SKC,0.67,VWS V13.01,2013-04-30 22:55:00,
2013-04-30 18:00:00,69.1,68.5,29.74,NNE,13,0.0,0.0,98,0.08,,SKC,0.67,VWS V13.01,2013-04-30 23:00:00,
2013-04-30 18:05:00,69.3,68.7,29.74,ENE,67,0.0,0.0,98,0.04,,SKC,0.67,VWS V13.01,2013-04-30 23:05:00,
2013-04-30 18:10:00,69.3,69.0,29.74,East,101,0.0,2.7,99,0.04,,SKC,0.67,VWS V13.01,2013-04-30 23:10:00,
2013-04-30 18:15:00,69.3,69.0,29.74,NE,53,0.0,0.0,99,0.04,,SKC,0.67,VWS V13.01,2013-04-30 23:15:00,
2013-04-30 18:20:00,69.1,67.6,29.74,NNE,29,0.0,0.0,95,0.00,,SKC,0.67,VWS V13.01,2013-04-30 23:20:00,
2013-04-30 18:25:00,69.1,67.9,29.74,East,97,0.0,0.0,96,0.00,,SKC,0.67,VWS V13.01,2013-04-30 23:25:00,
2013-04-30 18:30:00,69.1,68.5,29.74,ESE,102,0.0,0.0,98,0.00,,SKC,0.67,VWS V13.01,2013-04-30 23:30:00,
2013-04-30 18:35:00,69.3,69.0,29.74,ENE,74,0.0,0.0,99,0.00,,SKC,0.67,VWS V13.01,2013-04-30 23:35:00,
2013-04-30 18:40:00,69.3,68.4,29.74,ENE,73,0.0,0.0,97,0.00,,SKC,0.67,VWS V13.01,2013-04-30 23:40:00,
2013-04-30 18:45:00,69.3,69.0,29.74,ENE,67,2.2,2.2,99,0.04,,SKC,0.71,VWS V13.01,2013-04-30 23:45:00,
2013-04-30 18:50:00,69.3,69.3,29.77,ENE,76,2.2,2.2,100,0.04,,SKC,0.71,VWS V13.01,2013-04-30 23:50:00,
2013-04-30 18:55:00,69.3,69.3,29.77,ENE,57,0.0,0.0,100,0.04,,SKC,0.71,VWS V13.01,2013-04-30 23:55:00,
2013-04-30 19:00:00,69.3,69.0,29.77,ENE,62,0.0,0.0,99,0.04,,SKC,0.71,VWS V13.01,2013-05-01 00:00:00,
2013-04-30 19:05:00,69.1,68.8,29.77,NNE,31,3.1,4.0,99,0.04,,SKC,0.71,VWS V13.01,2013-05-01 00:05:00,
2013-04-30 19:10:00,69.1,69.1,29.77,ENE,77,2.2,2.2,100,0.04,,SKC,0.71,VWS V13.01,2013-05-01 00:10:00,
2013-04-30 19:15:00,68.9,68.9,29.77,SE,128,0.0,0.0,100,0.04,,SKC,0.71,VWS V13.01,2013-05-01 00:15:00,
2013-04-30 19:20:00,68.9,68.9,29.77,NE,53,3.1,3.1,100,0.04,,SKC,0.71,VWS V13.01,2013-05-01 00:20:00,
2013-04-30 19:25:00,68.9,68.9,29.77,East,81,2.7,2.7,100,0.04,,SKC,0.71,VWS V13.01,2013-05-01 00:25:00,
2013-04-30 19:30:00,69.1,69.1,29.77,East,91,0.0,0.0,100,0.04,,SKC,0.71,VWS V13.01,2013-05-01 00:30:00,
2013-04-30 19:35:00,69.1,69.1,29.77,East,90,0.0,3.6,100,0.08,,SKC,0.75,VWS V13.01,2013-05-01 00:35:00,
2013-04-30 19:40:00,69.1,69.1,29.77,NNE,23,4.0,4.0,100,0.08,,SKC,0.75,VWS V13.01,2013-05-01 00:40:00,
2013-04-30 19:45:00,68.9,68.9,29.77,East,91,0.0,0.0,100,0.04,,SKC,0.75,VWS V13.01,2013-05-01 00:45:00,
2013-04-30 19:50:00,68.9,68.9,29.77,East,95,0.0,3.1,100,0.04,,SKC,0.75,VWS V13.01,2013-05-01 00:50:00,
2013-04-30 19:55:00,68.9,68.9,29.77,ENE,60,2.7,4.9,100,0.04,,SKC,0.75,VWS V13.01,2013-05-01 00:55:00,
2013-04-30 20:00:00,68.7,68.7,29.77,ENE,57,4.0,5.4,100,0.04,,SKC,0.75,VWS V13.01,2013-05-01 01:00:00,
2013-04-30 20:05:00,68.7,68.7,29.74,NNE,12,2.7,2.7,100,0.04,,SKC,0.75,VWS V13.01,2013-05-01 01:05:00,
2013-04-30 20:10:00,68.9,68.9,29.74,East,93,0.0,0.0,100,0.04,,SKC,0.75,VWS V13.01,2013-05-01 01:10:00,
2013-04-30 20:15:00,68.9,68.9,29.74,East,93,0.0,0.0,100,0.04,,SKC,0.75,VWS V13.01,2013-05-01 01:15:00,
2013-04-30 20:20:00,69.1,69.1,29.77,East,93,0.0,0.0,100,0.04,,SKC,0.75,VWS V13.01,2013-05-01 01:20:00,
2013-04-30 20:25:00,69.1,69.1,29.77,East,93,0.0,0.0,100,0.04,,SKC,0.75,VWS V13.01,2013-05-01 01:25:00,
2013-04-30 20:30:00,68.9,68.9,29.77,East,93,0.0,0.0,100,0.04,,SKC,0.75,VWS V13.01,2013-05-01 01:30:00,
2013-04-30 20:35:00,68.7,68.7,29.77,ENE,63,2.7,2.7,100,0.04,,SKC,0.75,VWS V13.01,2013-05-01 01:35:00,
2013-04-30 20:40:00,68.9,68.9,29.77,ESE,111,0.0,0.0,100,0.00,,SKC,0.75,VWS V13.01,2013-05-01 01:40:00,
2013-04-30 20:45:00,68.9,68.9,29.77,East,87,2.2,2.7,100,0.00,,SKC,0.75,VWS V13.01,2013-05-01 01:45:00,
2013-04-30 20:50:00,68.9,68.9,29.77,East,89,0.0,0.0,100,0.00,,SKC,0.75,VWS V13.01,2013-05-01 01:50:00,
2013-04-30 20:55:00,68.9,68.9,29.77,East,94,4.0,4.0,100,0.00,,SKC,0.75,VWS V13.01,2013-05-01 01:55:00,
2013-04-30 21:00:00,68.9,68.9,29.77,East,90,3.6,5.4,100,0.00,,SKC,0.75,VWS V13.01,2013-05-01 02:00:00,
2013-04-30 21:05:00,68.9,68.9,29.77,ENE,76,5.4,5.8,100,0.00,,SKC,0.75,VWS V13.01,2013-05-01 02:05:00,
2013-04-30 21:10:00,68.9,68.9,29.77,East,88,3.1,3.1,100,0.00,,SKC,0.75,VWS V13.01,2013-05-01 02:10:00,
2013-04-30 21:15:00,68.9,68.9,29.77,East,98,0.0,3.6,100,0.00,,SKC,0.75,VWS V13.01,2013-05-01 02:15:00,
2013-04-30 21:20:00,68.7,68.7,29.77,East,90,0.0,0.0,100,0.00,,SKC,0.75,VWS V13.01,2013-05-01 02:20:00,
2013-04-30 21:25:00,68.9,68.9,29.77,East,84,0.0,0.0,100,0.00,,SKC,0.75,VWS V13.01,2013-05-01 02:25:00,
2013-04-30 21:30:00,68.7,68.7,29.77,ESE,103,0.0,0.0,100,0.00,,SKC,0.75,VWS V13.01,2013-05-01 02:30:00,
2013-04-30 21:34:00,68.7,68.7,29.77,ENE,77,2.7,2.7,100,0.00,,SKC,0.75,VWS V13.01,2013-05-01 02:34:00,
2013-04-30 21:39:00,68.7,68.7,29.77,ENE,76,0.0,0.0,100,0.00,,SKC,0.75,VWS V13.01,2013-05-01 02:39:00,
2013-04-30 21:44:00,68.7,68.7,29.77,East,81,0.0,0.0,100,0.00,,SKC,0.75,VWS V13.01,2013-05-01 02:44:00,
2013-04-30 21:49:00,68.5,68.5,29.77,East,85,0.0,0.0,100,0.00,,SKC,0.75,VWS V13.01,2013-05-01 02:49:00,
2013-04-30 21:54:00,68.5,68.5,29.77,East,93,0.0,3.1,100,0.00,,SKC,0.75,VWS V13.01,2013-05-01 02:54:00,
2013-04-30 21:59:00,68.4,68.4,29.77,SSE,163,0.0,5.4,100,0.00,,SKC,0.75,VWS V13.01,2013-05-01 02:59:00,
2013-04-30 22:04:00,68.4,68.4,29.77,East,79,0.0,0.0,100,0.00,,SKC,0.75,VWS V13.01,2013-05-01 03:04:00,
2013-04-30 22:09:00,68.4,68.4,29.77,East,89,0.0,0.0,100,0.00,,SKC,0.75,VWS V13.01,2013-05-01 03:09:00,
2013-04-30 22:14:00,68.4,68.4,29.77,East,96,0.0,3.1,100,0.00,,SKC,0.75,VWS V13.01,2013-05-01 03:14:00,
2013-04-30 22:19:00,68.4,68.4,29.77,ESE,115,0.0,2.7,100,0.00,,SKC,0.75,VWS V13.01,2013-05-01 03:19:00,
2013-04-30 22:24:00,68.4,68.4,29.77,ESE,121,0.0,4.9,100,0.00,,SKC,0.75,VWS V13.01,2013-05-01 03:24:00,
2013-04-30 22:29:00,68.4,68.4,29.77,East,87,5.4,5.4,100,0.00,,SKC,0.75,VWS V13.01,2013-05-01 03:29:00,
2013-04-30 22:34:00,68.4,68.4,29.77,East,80,0.0,0.0,100,0.00,,SKC,0.75,VWS V13.01,2013-05-01 03:34:00,
2013-04-30 22:39:00,68.4,68.4,29.77,ENE,62,0.0,0.0,100,0.00,,SKC,0.75,VWS V13.01,2013-05-01 03:39:00,
2013-04-30 22:44:00,68.4,68.4,29.77,East,98,0.0,0.0,100,0.00,,SKC,0.75,VWS V13.01,2013-05-01 03:44:00,
2013-04-30 22:49:00,68.5,68.5,29.77,ENE,68,0.0,0.0,100,0.00,,SKC,0.75,VWS V13.01,2013-05-01 03:49:00,
2013-04-30 22:54:00,68.5,68.5,29.77,ESE,106,0.0,0.0,100,0.00,,SKC,0.75,VWS V13.01,2013-05-01 03:54:00,
2013-04-30 22:59:00,68.5,68.5,29.77,East,86,0.0,0.0,100,0.00,,SKC,0.75,VWS V13.01,2013-05-01 03:59:00,
2013-04-30 23:01:00,68.5,68.5,29.77,East,84,0.0,0.0,100,0.00,,SKC,0.75,VWS V13.01,2013-05-01 04:01:00,
2013-04-30 23:06:00,68.5,68.5,29.77,ENE,57,0.0,0.0,100,0.00,,SKC,0.75,VWS V13.01,2013-05-01 04:06:00,
2013-04-30 23:11:00,68.5,68.5,29.77,East,88,0.0,0.0,100,0.00,,SKC,0.75,VWS V13.01,2013-05-01 04:11:00,
2013-04-30 23:16:00,68.5,68.5,29.77,East,94,0.0,0.0,100,0.00,,SKC,0.75,VWS V13.01,2013-05-01 04:16:00,
2013-04-30 23:21:00,68.5,68.5,29.77,ESE,123,0.0,0.0,100,0.00,,SKC,0.75,VWS V13.01,2013-05-01 04:21:00,
2013-04-30 23:26:00,68.5,68.5,29.77,North,355,0.0,0.0,100,0.00,,SKC,0.75,VWS V13.01,2013-05-01 04:26:00,
2013-04-30 23:31:00,68.4,68.4,29.77,NE,53,0.0,0.0,100,0.00,,SKC,0.75,VWS V13.01,2013-05-01 04:31:00,
2013-04-30 23:36:00,68.4,68.4,29.77,North,2,0.0,0.0,100,0.00,,SKC,0.75,VWS V13.01,2013-05-01 04:36:00,
2013-04-30 23:41:00,68.4,68.4,29.77,ENE,60,0.0,0.0,100,0.00,,SKC,0.75,VWS V13.01,2013-05-01 04:41:00,
2013-04-30 23:46:00,68.2,68.2,29.77,ENE,69,0.0,0.0,100,0.00,,SKC,0.75,VWS V13.01,2013-05-01 04:46:00,
2013-04-30 23:51:00,68.4,68.4,29.77,ENE,64,0.0,0.0,100,0.00,,SKC,0.75,VWS V13.01,2013-05-01 04:51:00,
2013-04-30 23:56:00,68.4,68.4,29.77,East,89,0.0,0.0,100,0.00,,SKC,0.75,VWS V13.01,2013-05-01 04:56:00,